Wetterdaten: Dienstag, 24.01.2023
Datum Zeit Temp. Aussen Temp. o. S. Temp +5cm Feuchte Auss Luftdruck Regen Sonnenschein Regendauer Solar Windben Empfang
24.01.2023 00:00 2,8 C 2,2 C -0,6 C 88 % 1037,5 hPa 0,0 l/m 0 min 0 min 0 W/m 9,7 km/h (2 Bft) 97,87 %
24.01.2023 00:02 2,8 C 2,2 C -0,6 C 88 % 1037,5 hPa 0,0 l/m 0 min 0 min 0 W/m 6,4 km/h (2 Bft) 90,70 %
24.01.2023 00:04 2,8 C 2,2 C -0,6 C 88 % 1037,5 hPa 0,0 l/m 0 min 0 min 0 W/m 9,7 km/h (2 Bft) 97,83 %
24.01.2023 00:07 2,8 C 2,2 C -0,6 C 88 % 1037,5 hPa 0,0 l/m 0 min 0 min 0 W/m 9,7 km/h (2 Bft) 95,77 %
24.01.2023 00:08 2,8 C 2,2 C -0,6 C 88 % 1037,5 hPa 0,0 l/m 0 min 0 min 0 W/m 6,4 km/h (2 Bft) 95,65 %
24.01.2023 00:12 2,8 C 2,2 C -0,6 C 88 % 1037,5 hPa 0,0 l/m 0 min 0 min 0 W/m 6,4 km/h (2 Bft) 95,24 %
24.01.2023 00:14 2,8 C 2,2 C -0,6 C 88 % 1037,5 hPa 0,0 l/m 0 min 0 min 0 W/m 6,4 km/h (2 Bft) 93,62 %
24.01.2023 00:16 2,8 C 2,2 C -0,6 C 88 % 1037,5 hPa 0,0 l/m 0 min 0 min 0 W/m 9,7 km/h (2 Bft) 97,87 %
24.01.2023 00:18 2,7 C 2,2 C -0,6 C 88 % 1037,6 hPa 0,0 l/m 0 min 0 min 0 W/m 3,2 km/h (1 Bft) 97,87 %
24.01.2023 00:20 2,7 C 2,2 C -0,6 C 88 % 1037,5 hPa 0,0 l/m 0 min 0 min 0 W/m 6,4 km/h (2 Bft) 97,87 %
24.01.2023 00:22 2,7 C 2,2 C -0,6 C 88 % 1037,5 hPa 0,0 l/m 0 min 0 min 0 W/m 6,4 km/h (2 Bft) 95,74 %
24.01.2023 00:24 2,7 C 2,2 C -0,6 C 88 % 1037,5 hPa 0,0 l/m 0 min 0 min 0 W/m 6,4 km/h (2 Bft) 97,83 %
24.01.2023 00:26 2,7 C 2,2 C -0,6 C 88 % 1037,6 hPa 0,0 l/m 0 min 0 min 0 W/m 6,4 km/h (2 Bft) 95,74 %
24.01.2023 00:28 2,7 C 2,2 C -0,6 C 89 % 1037,6 hPa 0,0 l/m 0 min 0 min 0 W/m 6,4 km/h (2 Bft) 95,74 %
24.01.2023 00:30 2,7 C 2,2 C -0,6 C 89 % 1037,6 hPa 0,0 l/m 0 min 0 min 0 W/m 9,7 km/h (2 Bft) 100,00 %
24.01.2023 00:32 2,7 C 2,2 C -0,6 C 89 % 1037,6 hPa 0,0 l/m 0 min 0 min 0 W/m 9,7 km/h (2 Bft) 95,74 %
24.01.2023 00:34 2,7 C 2,2 C -0,6 C 89 % 1037,5 hPa 0,0 l/m 0 min 0 min 0 W/m 9,7 km/h (2 Bft) 97,87 %
24.01.2023 00:36 2,7 C 2,2 C -0,6 C 89 % 1037,5 hPa 0,0 l/m 0 min 0 min 0 W/m 6,4 km/h (2 Bft) 100,00 %
24.01.2023 00:38 2,7 C 2,2 C -0,6 C 89 % 1037,5 hPa 0,0 l/m 0 min 0 min 0 W/m 6,4 km/h (2 Bft) 95,74 %
24.01.2023 00:40 2,6 C 2,2 C -0,6 C 89 % 1037,5 hPa 0,0 l/m 0 min 0 min 0 W/m 9,7 km/h (2 Bft) 97,87 %
24.01.2023 00:42 2,6 C 2,2 C -0,6 C 89 % 1037,5 hPa 0,0 l/m 0 min 0 min 0 W/m 9,7 km/h (2 Bft) 94,12 %
24.01.2023 00:44 2,6 C 2,2 C -0,6 C 89 % 1037,5 hPa 0,0 l/m 0 min 0 min 0 W/m 12,9 km/h (3 Bft) 97,87 %
24.01.2023 00:46 2,6 C 2,2 C -0,6 C 89 % 1037,5 hPa 0,0 l/m 0 min 0 min 0 W/m 12,9 km/h (3 Bft) 97,87 %
24.01.2023 00:48 2,6 C 2,2 C -0,6 C 89 % 1037,6 hPa 0,0 l/m 0 min 0 min 0 W/m 12,9 km/h (3 Bft) 97,83 %
24.01.2023 00:50 2,6 C 2,2 C -0,6 C 89 % 1037,6 hPa 0,0 l/m 0 min 0 min 0 W/m 16,1 km/h (3 Bft) 97,87 %
24.01.2023 00:52 2,6 C 2,2 C -0,6 C 89 % 1037,6 hPa 0,0 l/m 0 min 0 min 0 W/m 9,7 km/h (2 Bft) 95,74 %
24.01.2023 00:54 2,6 C 2,2 C -0,6 C 89 % 1037,6 hPa 0,0 l/m 0 min 0 min 0 W/m 9,7 km/h (2 Bft) 97,87 %
24.01.2023 00:56 2,6 C 2,2 C -1,1 C 89 % 1037,6 hPa 0,0 l/m 0 min 0 min 0 W/m 9,7 km/h (2 Bft) 97,87 %
24.01.2023 00:58 2,6 C 2,2 C -1,1 C 89 % 1037,6 hPa 0,0 l/m 0 min 0 min 0 W/m 12,9 km/h (3 Bft) 97,87 %
24.01.2023 01:00 2,6 C 2,2 C -1,1 C 89 % 1037,6 hPa 0,0 l/m 0 min 0 min 0 W/m 12,9 km/h (3 Bft) 97,83 %
24.01.2023 01:02 2,6 C 2,2 C -1,1 C 89 % 1037,6 hPa 0,0 l/m 0 min 0 min 0 W/m 9,7 km/h (2 Bft) 95,74 %
24.01.2023 01:04 2,6 C 2,2 C -1,1 C 89 % 1037,6 hPa 0,0 l/m 0 min 0 min 0 W/m 6,4 km/h (2 Bft) 95,74 %
24.01.2023 01:06 2,6 C 2,2 C -1,1 C 89 % 1037,6 hPa 0,0 l/m 0 min 0 min 0 W/m 9,7 km/h (2 Bft) 95,83 %
24.01.2023 01:08 2,6 C 2,2 C -1,1 C 89 % 1037,6 hPa 0,0 l/m 0 min 0 min 0 W/m 6,4 km/h (2 Bft) 100,00 %
24.01.2023 01:10 2,6 C 2,2 C -1,1 C 89 % 1037,6 hPa 0,0 l/m 0 min 0 min 0 W/m 9,7 km/h (2 Bft) 100,00 %
24.01.2023 01:12 2,6 C 2,2 C -1,1 C 89 % 1037,6 hPa 0,0 l/m 0 min 0 min 0 W/m 6,4 km/h (2 Bft) 97,87 %
24.01.2023 01:14 2,6 C 2,2 C -1,1 C 89 % 1037,6 hPa 0,0 l/m 0 min 0 min 0 W/m 12,9 km/h (3 Bft) 97,83 %
24.01.2023 01:16 2,6 C 2,2 C -1,1 C 89 % 1037,6 hPa 0,0 l/m 0 min 0 min 0 W/m 9,7 km/h (2 Bft) 97,87 %
24.01.2023 01:18 2,5 C 2,2 C -1,1 C 89 % 1037,7 hPa 0,0 l/m 0 min 0 min 0 W/m 9,7 km/h (2 Bft) 97,87 %
24.01.2023 01:20 2,5 C 2,2 C -1,1 C 89 % 1037,6 hPa 0,0 l/m 0 min 0 min 0 W/m 12,9 km/h (3 Bft) 100,00 %
24.01.2023 01:22 2,5 C 2,2 C -1,1 C 89 % 1037,6 hPa 0,0 l/m 0 min 0 min 0 W/m 12,9 km/h (3 Bft) 97,87 %
24.01.2023 01:24 2,5 C 2,2 C -1,1 C 89 % 1037,6 hPa 0,0 l/m 0 min 0 min 0 W/m 16,1 km/h (3 Bft) 93,62 %
24.01.2023 01:26 2,5 C 2,2 C -1,1 C 89 % 1037,6 hPa 0,0 l/m 0 min 0 min 0 W/m 12,9 km/h (3 Bft) 100,00 %
24.01.2023 01:28 2,5 C 2,2 C -1,1 C 89 % 1037,6 hPa 0,0 l/m 0 min 0 min 0 W/m 12,9 km/h (3 Bft) 100,00 %
24.01.2023 01:30 2,5 C 2,2 C -1,1 C 89 % 1037,5 hPa 0,0 l/m 0 min 0 min 0 W/m 9,7 km/h (2 Bft) 100,00 %
24.01.2023 01:35 2,5 C 2,2 C -1,1 C 89 % 1037,6 hPa 0,0 l/m 0 min 0 min 0 W/m 19,3 km/h (3 Bft) 100,00 %
24.01.2023 01:36 2,5 C 2,2 C -1,1 C 89 % 1037,6 hPa 0,0 l/m 0 min 0 min 0 W/m 9,7 km/h (2 Bft) 100,00 %
24.01.2023 01:38 2,5 C 2,2 C -1,1 C 89 % 1037,6 hPa 0,0 l/m 0 min 0 min 0 W/m 12,9 km/h (3 Bft) 97,87 %
24.01.2023 01:40 2,5 C 2,2 C -0,6 C 89 % 1037,6 hPa 0,0 l/m 0 min 0 min 0 W/m 19,3 km/h (3 Bft) 100,00 %
24.01.2023 01:42 2,5 C 2,2 C -0,6 C 89 % 1037,6 hPa 0,0 l/m 0 min 0 min 0 W/m 12,9 km/h (3 Bft) 97,87 %
24.01.2023 01:44 2,5 C 2,2 C -0,6 C 89 % 1037,6 hPa 0,0 l/m 0 min 0 min 0 W/m 12,9 km/h (3 Bft) 95,74 %
24.01.2023 01:46 2,5 C 2,2 C -1,1 C 89 % 1037,6 hPa 0,0 l/m 0 min 0 min 0 W/m 16,1 km/h (3 Bft) 95,74 %
24.01.2023 01:48 2,5 C 2,2 C -1,1 C 89 % 1037,5 hPa 0,0 l/m 0 min 0 min 0 W/m 9,7 km/h (2 Bft) 97,87 %
24.01.2023 01:50 2,5 C 2,2 C -1,1 C 89 % 1037,5 hPa 0,0 l/m 0 min 0 min 0 W/m 9,7 km/h (2 Bft) 97,87 %
24.01.2023 01:52 2,5 C 2,2 C -1,1 C 89 % 1037,5 hPa 0,0 l/m 0 min 0 min 0 W/m 16,1 km/h (3 Bft) 97,87 %
24.01.2023 01:54 2,5 C 2,2 C -1,1 C 89 % 1037,5 hPa 0,0 l/m 0 min 0 min 0 W/m 12,9 km/h (3 Bft) 97,83 %
24.01.2023 01:56 2,5 C 2,2 C -1,1 C 89 % 1037,5 hPa 0,0 l/m 0 min 0 min 0 W/m 9,7 km/h (2 Bft) 95,74 %
24.01.2023 01:58 2,5 C 2,2 C -1,1 C 89 % 1037,4 hPa 0,0 l/m 0 min 0 min 0 W/m 9,7 km/h (2 Bft) 97,87 %
24.01.2023 02:00 2,5 C 2,2 C -1,1 C 89 % 1037,5 hPa 0,0 l/m 0 min 0 min 0 W/m 12,9 km/h (3 Bft) 97,87 %
24.01.2023 02:02 2,5 C 2,2 C -1,1 C 89 % 1037,4 hPa 0,0 l/m 0 min 0 min 0 W/m 12,9 km/h (3 Bft) 97,87 %
24.01.2023 02:04 2,5 C 2,2 C -1,1 C 89 % 1037,5 hPa 0,0 l/m 0 min 0 min 0 W/m 19,3 km/h (3 Bft) 97,87 %
24.01.2023 02:06 2,5 C 2,2 C -1,1 C 89 % 1037,5 hPa 0,0 l/m 0 min 0 min 0 W/m 12,9 km/h (3 Bft) 95,74 %
24.01.2023 02:08 2,5 C 2,2 C -1,1 C 88 % 1037,5 hPa 0,0 l/m 0 min 0 min 0 W/m 9,7 km/h (2 Bft) 97,83 %
24.01.2023 02:10 2,5 C 2,2 C -1,1 C 88 % 1037,5 hPa 0,0 l/m 0 min 0 min 0 W/m 12,9 km/h (3 Bft) 97,87 %
24.01.2023 02:14 2,4 C 2,2 C -1,1 C 88 % 1037,5 hPa 0,0 l/m 0 min 0 min 0 W/m 12,9 km/h (3 Bft) 100,00 %
24.01.2023 02:16 2,4 C 2,2 C -1,1 C 88 % 1037,5 hPa 0,0 l/m 0 min 0 min 0 W/m 12,9 km/h (3 Bft) 97,87 %
24.01.2023 02:18 2,4 C 2,2 C -1,1 C 88 % 1037,5 hPa 0,0 l/m 0 min 0 min 0 W/m 12,9 km/h (3 Bft) 100,00 %
24.01.2023 02:20 2,4 C 2,2 C -1,1 C 89 % 1037,5 hPa 0,0 l/m 0 min 0 min 0 W/m 9,7 km/h (2 Bft) 100,00 %
24.01.2023 02:22 2,4 C 2,2 C -1,1 C 89 % 1037,5 hPa 0,0 l/m 0 min 0 min 0 W/m 9,7 km/h (2 Bft) 100,00 %
24.01.2023 02:24 2,4 C 1,7 C -1,1 C 89 % 1037,6 hPa 0,0 l/m 0 min 0 min 0 W/m 9,7 km/h (2 Bft) 97,87 %
24.01.2023 02:26 2,4 C 1,7 C -1,1 C 89 % 1037,6 hPa 0,0 l/m 0 min 0 min 0 W/m 9,7 km/h (2 Bft) 95,74 %
24.01.2023 02:28 2,4 C 1,7 C -1,1 C 89 % 1037,5 hPa 0,0 l/m 0 min 0 min 0 W/m 9,7 km/h (2 Bft) 100,00 %
24.01.2023 02:30 2,4 C 1,7 C -1,1 C 89 % 1037,6 hPa 0,0 l/m 0 min 0 min 0 W/m 6,4 km/h (2 Bft) 97,96 %
24.01.2023 02:32 2,4 C 1,7 C -1,1 C 89 % 1037,6 hPa 0,0 l/m 0 min 0 min 0 W/m 9,7 km/h (2 Bft) 95,74 %
24.01.2023 02:34 2,4 C 1,7 C -1,1 C 89 % 1037,6 hPa 0,0 l/m 0 min 0 min 0 W/m 9,7 km/h (2 Bft) 95,74 %
24.01.2023 02:36 2,4 C 1,7 C -1,1 C 89 % 1037,6 hPa 0,0 l/m 0 min 0 min 0 W/m 9,7 km/h (2 Bft) 98,11 %
24.01.2023 02:38 2,4 C 1,7 C -1,1 C 89 % 1037,6 hPa 0,0 l/m 0 min 0 min 0 W/m 9,7 km/h (2 Bft) 97,37 %
24.01.2023 02:40 2,4 C 1,7 C -1,1 C 89 % 1037,7 hPa 0,0 l/m 0 min 0 min 0 W/m 9,7 km/h (2 Bft) 96,00 %
24.01.2023 02:42 2,4 C 1,7 C -1,1 C 89 % 1037,6 hPa 0,0 l/m 0 min 0 min 0 W/m 6,4 km/h (2 Bft) 97,83 %
24.01.2023 02:44 2,4 C 1,7 C -1,1 C 89 % 1037,6 hPa 0,0 l/m 0 min 0 min 0 W/m 6,4 km/h (2 Bft) 97,87 %
24.01.2023 02:46 2,4 C 1,7 C -1,1 C 89 % 1037,6 hPa 0,0 l/m 0 min 0 min 0 W/m 3,2 km/h (1 Bft) 97,87 %
24.01.2023 02:48 2,3 C 1,7 C -1,1 C 89 % 1037,7 hPa 0,0 l/m 0 min 0 min 0 W/m 6,4 km/h (2 Bft) 95,74 %
24.01.2023 02:50 2,3 C 1,7 C -1,1 C 89 % 1037,6 hPa 0,0 l/m 0 min 0 min 0 W/m 6,4 km/h (2 Bft) 93,62 %
24.01.2023 02:52 2,3 C 1,7 C -1,1 C 89 % 1037,6 hPa 0,0 l/m 0 min 0 min 0 W/m 6,4 km/h (2 Bft) 95,74 %
24.01.2023 02:54 2,3 C 1,7 C -1,1 C 89 % 1037,6 hPa 0,0 l/m 0 min 0 min 0 W/m 6,4 km/h (2 Bft) 95,74 %
24.01.2023 02:56 2,3 C 1,7 C -1,1 C 89 % 1037,6 hPa 0,0 l/m 0 min 0 min 0 W/m 6,4 km/h (2 Bft) 95,65 %
24.01.2023 02:58 2,3 C 1,7 C -1,1 C 89 % 1037,6 hPa 0,0 l/m 0 min 0 min 0 W/m 6,4 km/h (2 Bft) 95,74 %
24.01.2023 03:00 2,3 C 1,7 C -1,1 C 90 % 1037,5 hPa 0,0 l/m 0 min 0 min 0 W/m 3,2 km/h (1 Bft) 97,87 %
24.01.2023 03:02 2,3 C 1,7 C -1,1 C 90 % 1037,5 hPa 0,0 l/m 0 min 0 min 0 W/m 12,9 km/h (3 Bft) 93,62 %
24.01.2023 03:04 2,3 C 1,7 C -1,1 C 90 % 1037,6 hPa 0,0 l/m 0 min 0 min 0 W/m 19,3 km/h (3 Bft) 95,74 %
24.01.2023 03:06 2,3 C 1,7 C -1,1 C 90 % 1037,6 hPa 0,0 l/m 0 min 0 min 0 W/m 9,7 km/h (2 Bft) 97,87 %
24.01.2023 03:08 2,3 C 1,7 C -1,1 C 90 % 1037,5 hPa 0,0 l/m 0 min 0 min 0 W/m 16,1 km/h (3 Bft) 97,83 %
24.01.2023 03:10 2,3 C 1,7 C -1,1 C 90 % 1037,6 hPa 0,0 l/m 0 min 0 min 0 W/m 9,7 km/h (2 Bft) 97,87 %
24.01.2023 03:12 2,3 C 1,7 C -1,1 C 90 % 1037,6 hPa 0,0 l/m 0 min 0 min 0 W/m 9,7 km/h (2 Bft) 97,87 %
24.01.2023 03:14 2,3 C 1,7 C -1,1 C 90 % 1037,7 hPa 0,0 l/m 0 min 0 min 0 W/m 12,9 km/h (3 Bft) 97,87 %
24.01.2023 03:16 2,3 C 1,7 C -1,1 C 90 % 1037,6 hPa 0,0 l/m 0 min 0 min 0 W/m 12,9 km/h (3 Bft) 97,87 %
24.01.2023 03:18 2,3 C 1,7 C -1,1 C 89 % 1037,6 hPa 0,0 l/m 0 min 0 min 0 W/m 16,1 km/h (3 Bft) 95,74 %
24.01.2023 03:20 2,3 C 1,7 C -1,1 C 89 % 1037,7 hPa 0,0 l/m 0 min 0 min 0 W/m 12,9 km/h (3 Bft) 97,87 %
24.01.2023 03:22 2,3 C 1,7 C -1,1 C 89 % 1037,7 hPa 0,0 l/m 0 min 0 min 0 W/m 12,9 km/h (3 Bft) 97,83 %
24.01.2023 03:24 2,3 C 1,7 C -1,1 C 89 % 1037,6 hPa 0,0 l/m 0 min 0 min 0 W/m 12,9 km/h (3 Bft) 97,87 %
24.01.2023 03:26 2,3 C 1,7 C -1,1 C 89 % 1037,6 hPa 0,0 l/m 0 min 0 min 0 W/m 12,9 km/h (3 Bft) 97,87 %
24.01.2023 03:28 2,3 C 1,7 C -1,1 C 89 % 1037,6 hPa 0,0 l/m 0 min 0 min 0 W/m 9,7 km/h (2 Bft) 97,87 %
24.01.2023 03:30 2,3 C 1,7 C -1,1 C 89 % 1037,6 hPa 0,0 l/m 0 min 0 min 0 W/m 9,7 km/h (2 Bft) 95,74 %
24.01.2023 03:32 2,3 C 1,7 C -1,1 C 89 % 1037,6 hPa 0,0 l/m 0 min 0 min 0 W/m 12,9 km/h (3 Bft) 95,74 %
24.01.2023 03:34 2,3 C 1,7 C -1,1 C 89 % 1037,6 hPa 0,0 l/m 0 min 0 min 0 W/m 12,9 km/h (3 Bft) 97,87 %
24.01.2023 03:36 2,3 C 1,7 C -1,1 C 89 % 1037,5 hPa 0,0 l/m 0 min 0 min 0 W/m 9,7 km/h (2 Bft) 95,65 %
24.01.2023 03:38 2,3 C 1,7 C -1,1 C 89 % 1037,5 hPa 0,0 l/m 0 min 0 min 0 W/m 16,1 km/h (3 Bft) 95,74 %
24.01.2023 03:40 2,3 C 1,7 C -1,1 C 89 % 1037,5 hPa 0,0 l/m 0 min 0 min 0 W/m 9,7 km/h (2 Bft) 100,00 %
24.01.2023 03:42 2,3 C 1,7 C -1,1 C 89 % 1037,5 hPa 0,0 l/m 0 min 0 min 0 W/m 12,9 km/h (3 Bft) 97,87 %
24.01.2023 03:44 2,3 C 1,7 C -1,1 C 89 % 1037,5 hPa 0,0 l/m 0 min 0 min 0 W/m 9,7 km/h (2 Bft) 97,87 %
24.01.2023 03:46 2,3 C 1,7 C -1,1 C 88 % 1037,5 hPa 0,0 l/m 0 min 0 min 0 W/m 12,9 km/h (3 Bft) 100,00 %
24.01.2023 03:48 2,3 C 1,7 C -1,1 C 88 % 1037,5 hPa 0,0 l/m 0 min 0 min 0 W/m 12,9 km/h (3 Bft) 100,00 %
24.01.2023 03:50 2,3 C 1,7 C -1,1 C 88 % 1037,4 hPa 0,0 l/m 0 min 0 min 0 W/m 9,7 km/h (2 Bft) 97,87 %
24.01.2023 03:52 2,3 C 1,7 C -1,1 C 88 % 1037,5 hPa 0,0 l/m 0 min 0 min 0 W/m 9,7 km/h (2 Bft) 93,62 %
24.01.2023 03:54 2,3 C 1,7 C -1,1 C 88 % 1037,5 hPa 0,0 l/m 0 min 0 min 0 W/m 12,9 km/h (3 Bft) 97,87 %
24.01.2023 03:56 2,3 C 1,7 C -1,1 C 88 % 1037,4 hPa 0,0 l/m 0 min 0 min 0 W/m 9,7 km/h (2 Bft) 97,87 %
24.01.2023 03:58 2,3 C 1,7 C -1,1 C 88 % 1037,5 hPa 0,0 l/m 0 min 0 min 0 W/m 9,7 km/h (2 Bft) 100,00 %
24.01.2023 04:00 2,3 C 1,7 C -1,1 C 88 % 1037,5 hPa 0,0 l/m 0 min 0 min 0 W/m 12,9 km/h (3 Bft) 97,87 %
24.01.2023 04:02 2,3 C 1,7 C -1,1 C 88 % 1037,5 hPa 0,0 l/m 0 min 0 min 0 W/m 12,9 km/h (3 Bft) 95,74 %
24.01.2023 04:04 2,3 C 1,7 C -1,1 C 88 % 1037,4 hPa 0,0 l/m 0 min 0 min 0 W/m 12,9 km/h (3 Bft) 97,87 %
24.01.2023 04:06 2,3 C 1,7 C -1,1 C 88 % 1037,4 hPa 0,0 l/m 0 min 0 min 0 W/m 16,1 km/h (3 Bft) 97,96 %
24.01.2023 04:08 2,3 C 1,7 C -1,1 C 88 % 1037,3 hPa 0,0 l/m 0 min 0 min 0 W/m 6,4 km/h (2 Bft) 65,96 %
24.01.2023 04:10 2,3 C 1,7 C -1,1 C 88 % 1037,3 hPa 0,0 l/m 0 min 0 min 0 W/m 16,1 km/h (3 Bft) 82,98 %
24.01.2023 04:12 2,3 C 1,7 C -1,1 C 88 % 1037,3 hPa 0,0 l/m 0 min 0 min 0 W/m 12,9 km/h (3 Bft) 97,83 %
24.01.2023 04:14 2,3 C 1,7 C -1,1 C 88 % 1037,3 hPa 0,0 l/m 0 min 0 min 0 W/m 9,7 km/h (2 Bft) 93,62 %
24.01.2023 04:16 2,3 C 1,7 C -1,1 C 88 % 1037,3 hPa 0,0 l/m 0 min 0 min 0 W/m 9,7 km/h (2 Bft) 97,87 %
24.01.2023 04:18 2,3 C 1,7 C -1,1 C 88 % 1037,4 hPa 0,0 l/m 0 min 0 min 0 W/m 6,4 km/h (2 Bft) 94,29 %
24.01.2023 04:20 2,3 C 1,7 C -1,1 C 88 % 1037,4 hPa 0,0 l/m 0 min 0 min 0 W/m 12,9 km/h (3 Bft) 96,30 %
24.01.2023 04:22 2,3 C 1,7 C -1,1 C 88 % 1037,3 hPa 0,0 l/m 0 min 0 min 0 W/m 9,7 km/h (2 Bft) 96,00 %
24.01.2023 04:24 2,3 C 1,7 C -1,1 C 88 % 1037,4 hPa 0,0 l/m 0 min 0 min 0 W/m 6,4 km/h (2 Bft) 93,75 %
24.01.2023 04:26 2,3 C 1,7 C -1,1 C 88 % 1037,3 hPa 0,0 l/m 0 min 0 min 0 W/m 12,9 km/h (3 Bft) 94,44 %
24.01.2023 04:28 2,3 C 1,7 C -1,1 C 88 % 1037,3 hPa 0,0 l/m 0 min 0 min 0 W/m 12,9 km/h (3 Bft) 93,48 %
24.01.2023 04:30 2,3 C 1,7 C -1,1 C 88 % 1037,4 hPa 0,0 l/m 0 min 0 min 0 W/m 9,7 km/h (2 Bft) 95,74 %
24.01.2023 04:32 2,2 C 1,7 C -1,1 C 88 % 1037,4 hPa 0,0 l/m 0 min 0 min 0 W/m 9,7 km/h (2 Bft) 93,62 %
24.01.2023 04:34 2,2 C 1,7 C -1,1 C 88 % 1037,4 hPa 0,0 l/m 0 min 0 min 0 W/m 9,7 km/h (2 Bft) 91,49 %
24.01.2023 04:36 2,2 C 1,7 C -1,1 C 88 % 1037,4 hPa 0,0 l/m 0 min 0 min 0 W/m 12,9 km/h (3 Bft) 95,74 %
24.01.2023 04:38 2,2 C 1,7 C -1,1 C 88 % 1037,4 hPa 0,0 l/m 0 min 0 min 0 W/m 16,1 km/h (3 Bft) 95,74 %
24.01.2023 04:40 2,2 C 1,7 C -1,1 C 88 % 1037,4 hPa 0,0 l/m 0 min 0 min 0 W/m 6,4 km/h (2 Bft) 95,74 %
24.01.2023 04:42 2,2 C 1,7 C -1,1 C 88 % 1037,4 hPa 0,0 l/m 0 min 0 min 0 W/m 9,7 km/h (2 Bft) 93,48 %
24.01.2023 04:44 2,2 C 1,7 C -1,1 C 88 % 1037,4 hPa 0,0 l/m 0 min 0 min 0 W/m 16,1 km/h (3 Bft) 93,62 %
24.01.2023 04:46 2,2 C 1,7 C -1,1 C 88 % 1037,4 hPa 0,0 l/m 0 min 0 min 0 W/m 16,1 km/h (3 Bft) 95,74 %
24.01.2023 04:48 2,2 C 1,7 C -1,1 C 88 % 1037,4 hPa 0,0 l/m 0 min 0 min 0 W/m 9,7 km/h (2 Bft) 97,87 %
24.01.2023 04:50 2,2 C 1,7 C -1,1 C 88 % 1037,4 hPa 0,0 l/m 0 min 0 min 0 W/m 9,7 km/h (2 Bft) 93,62 %
24.01.2023 04:52 2,2 C 1,7 C -1,1 C 88 % 1037,3 hPa 0,0 l/m 0 min 0 min 0 W/m 9,7 km/h (2 Bft) 93,62 %
24.01.2023 04:54 2,2 C 1,7 C -1,1 C 88 % 1037,4 hPa 0,0 l/m 0 min 0 min 0 W/m 6,4 km/h (2 Bft) 100,00 %
24.01.2023 04:56 2,2 C 1,7 C -1,1 C 88 % 1037,5 hPa 0,0 l/m 0 min 0 min 0 W/m 0,0 km/h (0 Bft) 97,87 %
24.01.2023 04:58 2,2 C 1,7 C -1,1 C 88 % 1037,4 hPa 0,0 l/m 0 min 0 min 0 W/m 6,4 km/h (2 Bft) 97,87 %
24.01.2023 05:00 2,2 C 1,7 C -1,1 C 88 % 1037,4 hPa 0,0 l/m 0 min 0 min 0 W/m 3,2 km/h (1 Bft) 100,00 %
24.01.2023 05:02 2,2 C 1,7 C -1,1 C 88 % 1037,4 hPa 0,0 l/m 0 min 0 min 0 W/m 3,2 km/h (1 Bft) 100,00 %
24.01.2023 05:04 2,2 C 1,7 C -1,1 C 88 % 1037,4 hPa 0,0 l/m 0 min 0 min 0 W/m 12,9 km/h (3 Bft) 100,00 %
24.01.2023 05:06 2,2 C 1,7 C -1,1 C 88 % 1037,4 hPa 0,0 l/m 0 min 0 min 0 W/m 6,4 km/h (2 Bft) 100,00 %
24.01.2023 05:08 2,2 C 1,7 C -1,1 C 88 % 1037,4 hPa 0,0 l/m 0 min 0 min 0 W/m 9,7 km/h (2 Bft) 100,00 %
24.01.2023 05:10 2,2 C 1,7 C -1,1 C 88 % 1037,4 hPa 0,0 l/m 0 min 0 min 0 W/m 6,4 km/h (2 Bft) 97,87 %
24.01.2023 05:12 2,2 C 1,7 C -1,1 C 88 % 1037,4 hPa 0,0 l/m 0 min 0 min 0 W/m 12,9 km/h (3 Bft) 100,00 %
24.01.2023 05:14 2,2 C 1,7 C -1,1 C 88 % 1037,3 hPa 0,0 l/m 0 min 0 min 0 W/m 16,1 km/h (3 Bft) 97,87 %
24.01.2023 05:16 2,1 C 1,7 C -1,1 C 88 % 1037,4 hPa 0,0 l/m 0 min 0 min 0 W/m 9,7 km/h (2 Bft) 100,00 %
24.01.2023 05:18 2,1 C 1,7 C -1,1 C 88 % 1037,4 hPa 0,0 l/m 0 min 0 min 0 W/m 19,3 km/h (3 Bft) 100,00 %
24.01.2023 05:20 2,1 C 1,7 C -1,1 C 88 % 1037,4 hPa 0,0 l/m 0 min 0 min 0 W/m 16,1 km/h (3 Bft) 100,00 %
24.01.2023 05:22 2,1 C 1,7 C -1,1 C 88 % 1037,3 hPa 0,0 l/m 0 min 0 min 0 W/m 9,7 km/h (2 Bft) 100,00 %
24.01.2023 05:24 2,1 C 1,7 C -1,1 C 88 % 1037,4 hPa 0,0 l/m 0 min 0 min 0 W/m 16,1 km/h (3 Bft) 100,00 %
24.01.2023 05:26 2,1 C 1,7 C -1,1 C 87 % 1037,4 hPa 0,0 l/m 0 min 0 min 0 W/m 16,1 km/h (3 Bft) 100,00 %
24.01.2023 05:28 2,1 C 1,7 C -1,1 C 87 % 1037,4 hPa 0,0 l/m 0 min 0 min 0 W/m 16,1 km/h (3 Bft) 100,00 %
24.01.2023 05:30 2,1 C 1,7 C -1,1 C 87 % 1037,3 hPa 0,0 l/m 0 min 0 min 0 W/m 12,9 km/h (3 Bft) 100,00 %
24.01.2023 05:32 2,1 C 1,7 C -1,1 C 87 % 1037,3 hPa 0,0 l/m 0 min 0 min 0 W/m 6,4 km/h (2 Bft) 100,00 %
24.01.2023 05:34 2,2 C 1,7 C -1,1 C 87 % 1037,3 hPa 0,0 l/m 0 min 0 min 0 W/m 6,4 km/h (2 Bft) 100,00 %
24.01.2023 05:36 2,2 C 1,7 C -1,1 C 87 % 1037,3 hPa 0,0 l/m 0 min 0 min 0 W/m 9,7 km/h (2 Bft) 100,00 %
24.01.2023 05:38 2,2 C 1,7 C -1,1 C 87 % 1037,3 hPa 0,0 l/m 0 min 0 min 0 W/m 6,4 km/h (2 Bft) 100,00 %
24.01.2023 05:40 2,1 C 1,7 C -1,1 C 87 % 1037,3 hPa 0,0 l/m 0 min 0 min 0 W/m 6,4 km/h (2 Bft) 97,87 %
24.01.2023 05:42 2,1 C 1,7 C -1,1 C 87 % 1037,3 hPa 0,0 l/m 0 min 0 min 0 W/m 3,2 km/h (1 Bft) 100,00 %
24.01.2023 05:44 2,1 C 1,7 C -1,1 C 87 % 1037,3 hPa 0,0 l/m 0 min 0 min 0 W/m 6,4 km/h (2 Bft) 95,74 %
24.01.2023 05:46 2,1 C 1,7 C -1,1 C 87 % 1037,3 hPa 0,0 l/m 0 min 0 min 0 W/m 9,7 km/h (2 Bft) 100,00 %
24.01.2023 05:48 2,1 C 1,7 C -1,1 C 87 % 1037,3 hPa 0,0 l/m 0 min 0 min 0 W/m 6,4 km/h (2 Bft) 95,74 %
24.01.2023 05:50 2,1 C 1,7 C -1,1 C 87 % 1037,4 hPa 0,0 l/m 0 min 0 min 0 W/m 12,9 km/h (3 Bft) 97,87 %
24.01.2023 05:52 2,1 C 1,7 C -1,1 C 87 % 1037,4 hPa 0,0 l/m 0 min 0 min 0 W/m 9,7 km/h (2 Bft) 97,87 %
24.01.2023 05:54 2,1 C 1,7 C -1,1 C 87 % 1037,4 hPa 0,0 l/m 0 min 0 min 0 W/m 12,9 km/h (3 Bft) 97,87 %
24.01.2023 05:56 2,1 C 1,7 C -1,1 C 87 % 1037,4 hPa 0,0 l/m 0 min 0 min 0 W/m 9,7 km/h (2 Bft) 97,87 %
24.01.2023 05:58 2,1 C 1,7 C -1,1 C 87 % 1037,3 hPa 0,0 l/m 0 min 0 min 0 W/m 9,7 km/h (2 Bft) 95,74 %
24.01.2023 06:00 2,1 C 1,7 C -1,1 C 87 % 1037,4 hPa 0,0 l/m 0 min 0 min 0 W/m 6,4 km/h (2 Bft) 97,83 %
24.01.2023 06:02 2,1 C 1,7 C -1,1 C 87 % 1037,4 hPa 0,0 l/m 0 min 0 min 0 W/m 9,7 km/h (2 Bft) 93,62 %
24.01.2023 06:04 2,1 C 1,7 C -1,7 C 87 % 1037,3 hPa 0,0 l/m 0 min 0 min 0 W/m 9,7 km/h (2 Bft) 95,74 %
24.01.2023 06:07 2,1 C 1,7 C -1,7 C 87 % 1037,4 hPa 0,0 l/m 0 min 0 min 0 W/m 6,4 km/h (2 Bft) 96,15 %
24.01.2023 06:08 2,0 C 1,7 C -1,7 C 87 % 1037,4 hPa 0,0 l/m 0 min 0 min 0 W/m 6,4 km/h (2 Bft) 100,00 %
24.01.2023 06:10 2,0 C 1,1 C -1,7 C 87 % 1037,3 hPa 0,0 l/m 0 min 0 min 0 W/m 12,9 km/h (3 Bft) 97,87 %
24.01.2023 06:12 2,0 C 1,1 C -1,7 C 87 % 1037,4 hPa 0,0 l/m 0 min 0 min 0 W/m 9,7 km/h (2 Bft) 95,74 %
24.01.2023 06:14 2,0 C 1,7 C -1,7 C 88 % 1037,4 hPa 0,0 l/m 0 min 0 min 0 W/m 12,9 km/h (3 Bft) 93,62 %
24.01.2023 06:16 2,0 C 1,1 C -1,7 C 88 % 1037,3 hPa 0,0 l/m 0 min 0 min 0 W/m 9,7 km/h (2 Bft) 95,74 %
24.01.2023 06:18 2,0 C 1,7 C -1,1 C 88 % 1037,4 hPa 0,0 l/m 0 min 0 min 0 W/m 12,9 km/h (3 Bft) 91,30 %
24.01.2023 06:20 2,0 C 1,7 C -1,1 C 87 % 1037,4 hPa 0,0 l/m 0 min 0 min 0 W/m 9,7 km/h (2 Bft) 95,74 %
24.01.2023 06:22 2,0 C 1,7 C -1,1 C 87 % 1037,4 hPa 0,0 l/m 0 min 0 min 0 W/m 9,7 km/h (2 Bft) 91,49 %
24.01.2023 06:24 2,0 C 1,7 C -1,7 C 87 % 1037,4 hPa 0,0 l/m 0 min 0 min 0 W/m 6,4 km/h (2 Bft) 95,74 %
24.01.2023 06:26 2,0 C 1,7 C -1,7 C 87 % 1037,5 hPa 0,0 l/m 0 min 0 min 0 W/m 6,4 km/h (2 Bft) 95,74 %
24.01.2023 06:28 2,0 C 1,7 C -1,7 C 87 % 1037,5 hPa 0,0 l/m 0 min 0 min 0 W/m 9,7 km/h (2 Bft) 93,62 %
24.01.2023 06:30 2,0 C 1,1 C -1,7 C 87 % 1037,4 hPa 0,0 l/m 0 min 0 min 0 W/m 9,7 km/h (2 Bft) 89,36 %
24.01.2023 06:32 2,0 C 1,1 C -1,7 C 87 % 1037,5 hPa 0,0 l/m 0 min 0 min 0 W/m 12,9 km/h (3 Bft) 91,30 %
24.01.2023 06:34 2,0 C 1,7 C -1,7 C 87 % 1037,5 hPa 0,0 l/m 0 min 0 min 0 W/m 6,4 km/h (2 Bft) 91,49 %
24.01.2023 06:36 2,0 C 1,1 C -1,7 C 87 % 1037,5 hPa 0,0 l/m 0 min 0 min 0 W/m 6,4 km/h (2 Bft) 93,62 %
24.01.2023 06:38 2,0 C 1,1 C -1,7 C 87 % 1037,5 hPa 0,0 l/m 0 min 0 min 0 W/m 9,7 km/h (2 Bft) 93,62 %
24.01.2023 06:40 2,0 C 1,7 C -1,7 C 87 % 1037,6 hPa 0,0 l/m 0 min 0 min 0 W/m 9,7 km/h (2 Bft) 91,49 %
24.01.2023 06:42 2,0 C 1,1 C -1,7 C 87 % 1037,5 hPa 0,0 l/m 0 min 0 min 0 W/m 6,4 km/h (2 Bft) 91,49 %
24.01.2023 06:44 2,0 C 1,1 C -1,7 C 87 % 1037,6 hPa 0,0 l/m 0 min 0 min 0 W/m 6,4 km/h (2 Bft) 93,48 %
24.01.2023 06:46 1,9 C 1,1 C -1,7 C 87 % 1037,6 hPa 0,0 l/m 0 min 0 min 0 W/m 6,4 km/h (2 Bft) 97,87 %
24.01.2023 06:48 1,9 C 1,1 C -1,7 C 87 % 1037,6 hPa 0,0 l/m 0 min 0 min 0 W/m 9,7 km/h (2 Bft) 97,87 %
24.01.2023 06:50 1,9 C 1,1 C -1,7 C 88 % 1037,6 hPa 0,0 l/m 0 min 0 min 0 W/m 9,7 km/h (2 Bft) 95,74 %
24.01.2023 06:52 1,9 C 1,1 C -1,7 C 88 % 1037,6 hPa 0,0 l/m 0 min 0 min 0 W/m 19,3 km/h (3 Bft) 97,87 %
24.01.2023 06:54 1,9 C 1,1 C -1,7 C 88 % 1037,6 hPa 0,0 l/m 0 min 0 min 0 W/m 12,9 km/h (3 Bft) 93,62 %
24.01.2023 06:56 1,9 C 1,1 C -1,7 C 88 % 1037,7 hPa 0,0 l/m 0 min 0 min 0 W/m 6,4 km/h (2 Bft) 100,00 %
24.01.2023 06:58 1,9 C 1,1 C -1,7 C 88 % 1037,7 hPa 0,0 l/m 0 min 0 min 0 W/m 6,4 km/h (2 Bft) 97,83 %
24.01.2023 07:00 1,9 C 1,1 C -1,7 C 88 % 1037,8 hPa 0,0 l/m 0 min 0 min 0 W/m 9,7 km/h (2 Bft) 97,87 %
24.01.2023 07:02 1,9 C 1,1 C -1,7 C 87 % 1037,8 hPa 0,0 l/m 0 min 0 min 0 W/m 6,4 km/h (2 Bft) 95,74 %
24.01.2023 07:04 1,9 C 1,1 C -1,7 C 87 % 1037,8 hPa 0,0 l/m 0 min 0 min 0 W/m 3,2 km/h (1 Bft) 97,87 %
24.01.2023 07:06 1,9 C 1,1 C -1,7 C 87 % 1037,9 hPa 0,0 l/m 0 min 0 min 0 W/m 6,4 km/h (2 Bft) 97,87 %
24.01.2023 07:08 1,9 C 1,1 C -1,7 C 87 % 1037,8 hPa 0,0 l/m 0 min 0 min 0 W/m 6,4 km/h (2 Bft) 95,74 %
24.01.2023 07:10 1,9 C 1,1 C -1,7 C 87 % 1037,8 hPa 0,0 l/m 0 min 0 min 0 W/m 6,4 km/h (2 Bft) 97,83 %
24.01.2023 07:12 1,9 C 1,1 C -1,7 C 87 % 1037,8 hPa 0,0 l/m 0 min 0 min 0 W/m 9,7 km/h (2 Bft) 97,87 %
24.01.2023 07:14 1,9 C 1,1 C -1,7 C 88 % 1037,8 hPa 0,0 l/m 0 min 0 min 0 W/m 12,9 km/h (3 Bft) 97,87 %
24.01.2023 07:16 1,9 C 1,1 C -1,7 C 88 % 1037,9 hPa 0,0 l/m 0 min 0 min 0 W/m 16,1 km/h (3 Bft) 100,00 %
24.01.2023 07:18 1,9 C 1,1 C -1,7 C 88 % 1037,9 hPa 0,0 l/m 0 min 0 min 0 W/m 9,7 km/h (2 Bft) 100,00 %
24.01.2023 07:20 1,9 C 1,1 C -1,7 C 88 % 1037,9 hPa 0,0 l/m 0 min 0 min 0 W/m 6,4 km/h (2 Bft) 100,00 %
24.01.2023 07:22 1,9 C 1,1 C -1,7 C 88 % 1037,9 hPa 0,0 l/m 0 min 0 min 0 W/m 9,7 km/h (2 Bft) 100,00 %
24.01.2023 07:24 1,9 C 1,1 C -1,7 C 88 % 1037,9 hPa 0,0 l/m 0 min 0 min 0 W/m 9,7 km/h (2 Bft) 100,00 %
24.01.2023 07:26 1,9 C 1,7 C -1,7 C 88 % 1037,9 hPa 0,0 l/m 0 min 0 min 0 W/m 12,9 km/h (3 Bft) 100,00 %
24.01.2023 07:28 1,9 C 1,7 C -1,7 C 87 % 1037,9 hPa 0,0 l/m 0 min 0 min 0 W/m 6,4 km/h (2 Bft) 97,87 %
24.01.2023 07:30 1,9 C 1,7 C -1,7 C 87 % 1037,9 hPa 0,0 l/m 0 min 0 min 0 W/m 9,7 km/h (2 Bft) 97,87 %
24.01.2023 07:32 1,9 C 1,7 C -1,7 C 87 % 1037,9 hPa 0,0 l/m 0 min 0 min 0 W/m 6,4 km/h (2 Bft) 100,00 %
24.01.2023 07:34 1,9 C 1,1 C -1,7 C 87 % 1038,0 hPa 0,0 l/m 0 min 0 min 0 W/m 9,7 km/h (2 Bft) 100,00 %
24.01.2023 07:36 1,9 C 1,1 C -1,7 C 87 % 1038,0 hPa 0,0 l/m 0 min 0 min 0 W/m 6,4 km/h (2 Bft) 72,34 %
24.01.2023 07:38 1,9 C 1,1 C -1,7 C 87 % 1038,0 hPa 0,0 l/m 0 min 0 min 0 W/m 6,4 km/h (2 Bft) 79,41 %
24.01.2023 07:40 1,9 C 1,1 C -1,7 C 87 % 1038,0 hPa 0,0 l/m 0 min 0 min 0 W/m 6,4 km/h (2 Bft) 100,00 %
24.01.2023 07:42 1,9 C 1,1 C -1,7 C 87 % 1038,0 hPa 0,0 l/m 0 min 0 min 0 W/m 16,1 km/h (3 Bft) 100,00 %
24.01.2023 07:44 1,9 C 1,1 C -1,7 C 88 % 1038,0 hPa 0,0 l/m 0 min 0 min 0 W/m 9,7 km/h (2 Bft) 97,87 %
24.01.2023 07:46 1,9 C 1,1 C -1,7 C 88 % 1038,0 hPa 0,0 l/m 0 min 0 min 0 W/m 9,7 km/h (2 Bft) 100,00 %
24.01.2023 07:48 1,9 C 1,1 C -1,7 C 88 % 1038,0 hPa 0,0 l/m 0 min 0 min 0 W/m 12,9 km/h (3 Bft) 100,00 %
24.01.2023 07:50 1,9 C 1,1 C -1,7 C 88 % 1038,0 hPa 0,0 l/m 0 min 0 min 0 W/m 12,9 km/h (3 Bft) 100,00 %
24.01.2023 07:52 1,9 C 1,1 C -1,7 C 88 % 1038,0 hPa 0,0 l/m 0 min 0 min 0 W/m 6,4 km/h (2 Bft) 100,00 %
24.01.2023 07:54 1,9 C 1,1 C -1,7 C 88 % 1038,0 hPa 0,0 l/m 0 min 0 min 0 W/m 9,7 km/h (2 Bft) 100,00 %
24.01.2023 07:56 1,9 C 1,1 C -1,7 C 88 % 1038,0 hPa 0,0 l/m 0 min 0 min 0 W/m 12,9 km/h (3 Bft) 100,00 %
24.01.2023 07:58 1,9 C 1,1 C -1,7 C 88 % 1038,0 hPa 0,0 l/m 0 min 0 min 0 W/m 12,9 km/h (3 Bft) 100,00 %
24.01.2023 08:00 1,9 C 1,1 C -1,7 C 88 % 1038,0 hPa 0,0 l/m 0 min 0 min 0 W/m 9,7 km/h (2 Bft) 100,00 %
24.01.2023 08:02 1,9 C 1,1 C -1,7 C 88 % 1038,1 hPa 0,0 l/m 0 min 0 min 0 W/m 9,7 km/h (2 Bft) 100,00 %
24.01.2023 08:04 1,9 C 1,1 C -1,7 C 88 % 1038,1 hPa 0,0 l/m 0 min 0 min 0 W/m 9,7 km/h (2 Bft) 97,83 %
24.01.2023 08:06 1,9 C 1,1 C -1,7 C 88 % 1038,1 hPa 0,0 l/m 0 min 0 min 0 W/m 16,1 km/h (3 Bft) 100,00 %
24.01.2023 08:08 1,9 C 1,1 C -1,7 C 87 % 1038,1 hPa 0,0 l/m 0 min 0 min 0 W/m 12,9 km/h (3 Bft) 95,74 %
24.01.2023 08:10 1,9 C 1,1 C -1,7 C 87 % 1038,1 hPa 0,0 l/m 0 min 0 min 0 W/m 6,4 km/h (2 Bft) 72,34 %
24.01.2023 08:12 1,9 C 1,1 C -1,7 C 87 % 1038,2 hPa 0,0 l/m 0 min 0 min 0 W/m 6,4 km/h (2 Bft) 85,11 %
24.01.2023 08:14 1,9 C 1,1 C -1,7 C 87 % 1038,2 hPa 0,0 l/m 0 min 0 min 0 W/m 6,4 km/h (2 Bft) 93,62 %
24.01.2023 08:16 1,9 C 1,1 C -1,7 C 87 % 1038,2 hPa 0,0 l/m 0 min 0 min 0 W/m 6,4 km/h (2 Bft) 97,83 %
24.01.2023 08:18 1,9 C 1,1 C -1,7 C 88 % 1038,3 hPa 0,0 l/m 0 min 0 min 0 W/m 6,4 km/h (2 Bft) 93,62 %
24.01.2023 08:20 1,9 C 1,1 C -1,7 C 88 % 1038,3 hPa 0,0 l/m 0 min 0 min 0 W/m 6,4 km/h (2 Bft) 97,87 %
24.01.2023 08:22 1,9 C 1,1 C -1,7 C 88 % 1038,3 hPa 0,0 l/m 0 min 0 min 0 W/m 9,7 km/h (2 Bft) 97,87 %
24.01.2023 08:24 1,9 C 1,1 C -1,7 C 88 % 1038,3 hPa 0,0 l/m 0 min 0 min 0 W/m 6,4 km/h (2 Bft) 97,87 %
24.01.2023 08:26 1,9 C 1,1 C -1,7 C 88 % 1038,4 hPa 0,0 l/m 0 min 0 min 0 W/m 9,7 km/h (2 Bft) 95,74 %
24.01.2023 08:28 1,9 C 1,1 C -1,7 C 88 % 1038,4 hPa 0,0 l/m 0 min 0 min 0 W/m 9,7 km/h (2 Bft) 95,74 %
24.01.2023 08:30 1,9 C 1,1 C -1,7 C 88 % 1038,3 hPa 0,0 l/m 0 min 0 min 0 W/m 9,7 km/h (2 Bft) 97,83 %
24.01.2023 08:32 1,9 C 1,1 C -1,7 C 88 % 1038,4 hPa 0,0 l/m 0 min 0 min 0 W/m 3,2 km/h (1 Bft) 97,87 %
24.01.2023 08:34 1,9 C 1,1 C -1,7 C 88 % 1038,4 hPa 0,0 l/m 0 min 0 min 0 W/m 9,7 km/h (2 Bft) 95,74 %
24.01.2023 08:36 1,9 C 1,1 C -1,7 C 88 % 1038,4 hPa 0,0 l/m 0 min 0 min 0 W/m 9,7 km/h (2 Bft) 97,87 %
24.01.2023 08:38 1,9 C 1,1 C -1,7 C 88 % 1038,5 hPa 0,0 l/m 0 min 0 min 4 W/m 19,3 km/h (3 Bft) 97,87 %
24.01.2023 08:40 1,9 C 1,1 C -1,7 C 88 % 1038,4 hPa 0,0 l/m 0 min 0 min 5 W/m 9,7 km/h (2 Bft) 100,00 %
24.01.2023 08:42 1,9 C 1,1 C -1,7 C 88 % 1038,4 hPa 0,0 l/m 0 min 0 min 5 W/m 16,1 km/h (3 Bft) 100,00 %
24.01.2023 08:44 1,9 C 1,7 C -1,7 C 88 % 1038,5 hPa 0,0 l/m 0 min 0 min 6 W/m 9,7 km/h (2 Bft) 100,00 %
24.01.2023 08:46 1,9 C 1,7 C -1,7 C 88 % 1038,6 hPa 0,0 l/m 0 min 0 min 7 W/m 9,7 km/h (2 Bft) 97,87 %
24.01.2023 08:48 1,9 C 1,7 C -1,7 C 88 % 1038,6 hPa 0,0 l/m 0 min 0 min 7 W/m 9,7 km/h (2 Bft) 97,87 %
24.01.2023 08:50 1,9 C 1,7 C -1,7 C 88 % 1038,6 hPa 0,0 l/m 0 min 0 min 9 W/m 6,4 km/h (2 Bft) 97,87 %
24.01.2023 08:52 1,9 C 1,7 C -1,7 C 88 % 1038,5 hPa 0,0 l/m 0 min 0 min 9 W/m 9,7 km/h (2 Bft) 97,87 %
24.01.2023 08:54 1,9 C 1,7 C -1,7 C 88 % 1038,5 hPa 0,0 l/m 0 min 0 min 10 W/m 9,7 km/h (2 Bft) 97,87 %
24.01.2023 08:56 1,9 C 1,7 C -1,7 C 88 % 1038,5 hPa 0,0 l/m 0 min 0 min 11 W/m 6,4 km/h (2 Bft) 95,65 %
24.01.2023 08:58 1,9 C 1,7 C -1,1 C 88 % 1038,6 hPa 0,0 l/m 0 min 0 min 12 W/m 9,7 km/h (2 Bft) 97,87 %
24.01.2023 09:00 1,9 C 1,7 C -1,1 C 88 % 1038,6 hPa 0,0 l/m 0 min 0 min 12 W/m 6,4 km/h (2 Bft) 97,87 %
24.01.2023 09:02 1,9 C 1,7 C -1,1 C 88 % 1038,6 hPa 0,0 l/m 0 min 0 min 12 W/m 6,4 km/h (2 Bft) 89,36 %
24.01.2023 09:04 1,9 C 1,7 C -1,1 C 88 % 1038,6 hPa 0,0 l/m 0 min 0 min 13 W/m 12,9 km/h (3 Bft) 95,74 %
24.01.2023 09:06 2,0 C 1,7 C -1,1 C 88 % 1038,6 hPa 0,0 l/m 0 min 0 min 14 W/m 9,7 km/h (2 Bft) 93,62 %
24.01.2023 09:08 2,0 C 1,7 C -1,1 C 88 % 1038,6 hPa 0,0 l/m 0 min 0 min 16 W/m 9,7 km/h (2 Bft) 95,74 %
24.01.2023 09:10 2,0 C 1,7 C -1,1 C 88 % 1038,6 hPa 0,0 l/m 0 min 0 min 16 W/m 12,9 km/h (3 Bft) 93,48 %
24.01.2023 09:12 2,0 C 1,7 C -1,1 C 88 % 1038,6 hPa 0,0 l/m 0 min 0 min 17 W/m 9,7 km/h (2 Bft) 95,74 %
24.01.2023 09:14 2,0 C 1,7 C -1,1 C 88 % 1038,6 hPa 0,0 l/m 0 min 0 min 18 W/m 9,7 km/h (2 Bft) 95,74 %
24.01.2023 09:16 2,0 C 1,7 C -1,1 C 88 % 1038,6 hPa 0,0 l/m 0 min 0 min 19 W/m 9,7 km/h (2 Bft) 95,74 %
24.01.2023 09:18 2,0 C 1,7 C -1,1 C 88 % 1038,6 hPa 0,0 l/m 0 min 0 min 20 W/m 9,7 km/h (2 Bft) 95,74 %
24.01.2023 09:20 2,0 C 1,7 C -1,1 C 88 % 1038,6 hPa 0,0 l/m 0 min 0 min 21 W/m 9,7 km/h (2 Bft) 95,74 %
24.01.2023 09:22 2,0 C 1,7 C -1,1 C 88 % 1038,7 hPa 0,0 l/m 0 min 0 min 23 W/m 12,9 km/h (3 Bft) 93,48 %
24.01.2023 09:24 2,1 C 1,7 C -1,1 C 88 % 1038,7 hPa 0,0 l/m 0 min 0 min 25 W/m 12,9 km/h (3 Bft) 95,74 %
24.01.2023 09:26 2,1 C 1,7 C -1,1 C 88 % 1038,7 hPa 0,0 l/m 0 min 0 min 26 W/m 12,9 km/h (3 Bft) 95,74 %
24.01.2023 09:28 2,1 C 1,7 C -1,1 C 87 % 1038,7 hPa 0,0 l/m 0 min 0 min 26 W/m 9,7 km/h (2 Bft) 93,62 %
24.01.2023 09:30 2,1 C 1,7 C -1,1 C 88 % 1038,7 hPa 0,0 l/m 0 min 0 min 27 W/m 6,4 km/h (2 Bft) 95,74 %
24.01.2023 09:32 2,1 C 1,7 C -1,1 C 88 % 1038,7 hPa 0,0 l/m 0 min 0 min 29 W/m 6,4 km/h (2 Bft) 93,62 %
24.01.2023 09:34 2,1 C 1,7 C -1,1 C 88 % 1038,7 hPa 0,0 l/m 0 min 0 min 31 W/m 6,4 km/h (2 Bft) 95,74 %
24.01.2023 09:36 2,1 C 1,7 C -1,1 C 88 % 1038,8 hPa 0,0 l/m 0 min 0 min 30 W/m 6,4 km/h (2 Bft) 95,65 %
24.01.2023 09:38 2,1 C 1,7 C -1,1 C 88 % 1038,8 hPa 0,0 l/m 0 min 0 min 32 W/m 9,7 km/h (2 Bft) 95,74 %
24.01.2023 09:40 2,1 C 1,7 C -1,1 C 87 % 1038,8 hPa 0,0 l/m 0 min 0 min 32 W/m 6,4 km/h (2 Bft) 95,74 %
24.01.2023 09:42 2,1 C 1,7 C -1,1 C 87 % 1038,8 hPa 0,0 l/m 0 min 0 min 32 W/m 9,7 km/h (2 Bft) 97,87 %
24.01.2023 09:44 2,1 C 1,7 C -1,1 C 87 % 1038,9 hPa 0,0 l/m 0 min 0 min 33 W/m 12,9 km/h (3 Bft) 95,74 %
24.01.2023 09:46 2,1 C 1,7 C -1,1 C 87 % 1038,9 hPa 0,0 l/m 0 min 0 min 33 W/m 12,9 km/h (3 Bft) 97,87 %
24.01.2023 09:48 2,1 C 1,7 C -1,1 C 87 % 1038,9 hPa 0,0 l/m 0 min 0 min 35 W/m 12,9 km/h (3 Bft) 100,00 %
24.01.2023 09:50 2,1 C 2,2 C -1,1 C 87 % 1038,9 hPa 0,0 l/m 0 min 0 min 35 W/m 12,9 km/h (3 Bft) 100,00 %
24.01.2023 09:52 2,1 C 2,2 C -1,1 C 87 % 1039,0 hPa 0,0 l/m 0 min 0 min 35 W/m 12,9 km/h (3 Bft) 100,00 %
24.01.2023 09:54 2,1 C 2,2 C -1,1 C 87 % 1038,9 hPa 0,0 l/m 0 min 0 min 39 W/m 16,1 km/h (3 Bft) 100,00 %
24.01.2023 09:56 2,2 C 2,2 C -1,1 C 87 % 1038,9 hPa 0,0 l/m 0 min 0 min 39 W/m 9,7 km/h (2 Bft) 95,74 %
24.01.2023 09:58 2,2 C 2,2 C -1,1 C 87 % 1039,0 hPa 0,0 l/m 0 min 0 min 39 W/m 12,9 km/h (3 Bft) 100,00 %
24.01.2023 10:00 2,2 C 2,2 C -1,1 C 87 % 1039,0 hPa 0,0 l/m 0 min 0 min 39 W/m 16,1 km/h (3 Bft) 97,87 %
24.01.2023 10:02 2,2 C 2,2 C -1,1 C 87 % 1039,0 hPa 0,0 l/m 0 min 0 min 39 W/m 12,9 km/h (3 Bft) 95,65 %
24.01.2023 10:04 2,2 C 2,2 C -1,1 C 87 % 1039,0 hPa 0,0 l/m 0 min 0 min 39 W/m 9,7 km/h (2 Bft) 97,87 %
24.01.2023 10:06 2,2 C 2,2 C -1,1 C 87 % 1039,0 hPa 0,0 l/m 0 min 0 min 40 W/m 12,9 km/h (3 Bft) 97,87 %
24.01.2023 10:08 2,2 C 2,2 C -1,1 C 87 % 1039,0 hPa 0,0 l/m 0 min 0 min 42 W/m 9,7 km/h (2 Bft) 97,87 %
24.01.2023 10:10 2,2 C 2,2 C -1,1 C 87 % 1039,0 hPa 0,0 l/m 0 min 0 min 43 W/m 12,9 km/h (3 Bft) 97,87 %
24.01.2023 10:12 2,2 C 2,2 C -1,1 C 87 % 1039,1 hPa 0,0 l/m 0 min 0 min 44 W/m 6,4 km/h (2 Bft) 48,72 %
24.01.2023 10:14 2,2 C 2,2 C -1,1 C 87 % 1039,0 hPa 0,0 l/m 0 min 0 min 45 W/m 6,4 km/h (2 Bft) 95,65 %
24.01.2023 10:16 2,2 C 2,2 C -1,1 C 87 % 1039,1 hPa 0,0 l/m 0 min 0 min 46 W/m 9,7 km/h (2 Bft) 97,87 %
24.01.2023 10:18 2,2 C 2,2 C -1,1 C 87 % 1039,0 hPa 0,0 l/m 0 min 0 min 48 W/m 12,9 km/h (3 Bft) 97,87 %
24.01.2023 10:20 2,2 C 2,2 C -1,1 C 87 % 1039,0 hPa 0,0 l/m 0 min 0 min 48 W/m 9,7 km/h (2 Bft) 95,74 %
24.01.2023 10:22 2,3 C 2,2 C -1,1 C 87 % 1039,0 hPa 0,0 l/m 0 min 0 min 49 W/m 9,7 km/h (2 Bft) 97,87 %
24.01.2023 10:24 2,3 C 2,2 C -1,1 C 87 % 1039,0 hPa 0,0 l/m 0 min 0 min 49 W/m 12,9 km/h (3 Bft) 97,87 %
24.01.2023 10:26 2,3 C 2,2 C -1,1 C 87 % 1039,0 hPa 0,0 l/m 0 min 0 min 52 W/m 12,9 km/h (3 Bft) 97,87 %
24.01.2023 10:28 2,3 C 2,2 C -1,1 C 87 % 1039,1 hPa 0,0 l/m 0 min 0 min 53 W/m 12,9 km/h (3 Bft) 97,83 %
24.01.2023 10:30 2,3 C 2,2 C -1,1 C 87 % 1039,1 hPa 0,0 l/m 0 min 0 min 53 W/m 9,7 km/h (2 Bft) 97,87 %
24.01.2023 10:32 2,3 C 2,2 C -1,1 C 87 % 1039,0 hPa 0,0 l/m 0 min 0 min 54 W/m 6,4 km/h (2 Bft) 97,87 %
24.01.2023 10:34 2,3 C 2,2 C -1,1 C 87 % 1039,1 hPa 0,0 l/m 0 min 0 min 54 W/m 6,4 km/h (2 Bft) 100,00 %
24.01.2023 10:36 2,3 C 2,2 C -1,1 C 87 % 1039,1 hPa 0,0 l/m 0 min 0 min 54 W/m 6,4 km/h (2 Bft) 100,00 %
24.01.2023 10:38 2,4 C 2,2 C -1,1 C 87 % 1039,1 hPa 0,0 l/m 0 min 0 min 54 W/m 16,1 km/h (3 Bft) 100,00 %
24.01.2023 10:40 2,4 C 2,2 C -1,1 C 87 % 1039,2 hPa 0,0 l/m 0 min 0 min 53 W/m 9,7 km/h (2 Bft) 100,00 %
24.01.2023 10:42 2,3 C 2,2 C -1,1 C 87 % 1039,2 hPa 0,0 l/m 0 min 0 min 53 W/m 9,7 km/h (2 Bft) 100,00 %
24.01.2023 10:44 2,4 C 2,2 C -1,1 C 87 % 1039,1 hPa 0,0 l/m 0 min 0 min 54 W/m 6,4 km/h (2 Bft) 97,87 %
24.01.2023 10:46 2,4 C 2,2 C -1,1 C 87 % 1039,2 hPa 0,0 l/m 0 min 0 min 56 W/m 12,9 km/h (3 Bft) 100,00 %
24.01.2023 10:48 2,4 C 2,2 C -1,1 C 87 % 1039,1 hPa 0,0 l/m 0 min 0 min 56 W/m 9,7 km/h (2 Bft) 97,87 %
24.01.2023 10:50 2,4 C 2,2 C -1,1 C 87 % 1039,1 hPa 0,0 l/m 0 min 0 min 58 W/m 9,7 km/h (2 Bft) 100,00 %
24.01.2023 10:52 2,4 C 2,2 C -1,1 C 87 % 1039,1 hPa 0,0 l/m 0 min 0 min 59 W/m 9,7 km/h (2 Bft) 97,83 %
24.01.2023 10:54 2,4 C 2,2 C -1,1 C 87 % 1039,1 hPa 0,0 l/m 0 min 0 min 62 W/m 6,4 km/h (2 Bft) 100,00 %
24.01.2023 10:56 2,4 C 2,2 C -0,6 C 87 % 1039,1 hPa 0,0 l/m 0 min 0 min 62 W/m 9,7 km/h (2 Bft) 100,00 %
24.01.2023 10:58 2,4 C 2,2 C -0,6 C 87 % 1039,1 hPa 0,0 l/m 0 min 0 min 61 W/m 6,4 km/h (2 Bft) 100,00 %
24.01.2023 11:00 2,4 C 2,2 C -0,6 C 87 % 1039,1 hPa 0,0 l/m 0 min 0 min 62 W/m 9,7 km/h (2 Bft) 100,00 %
24.01.2023 11:02 2,4 C 2,2 C -0,6 C 87 % 1039,2 hPa 0,0 l/m 0 min 0 min 64 W/m 6,4 km/h (2 Bft) 95,74 %
24.01.2023 11:04 2,4 C 2,2 C -0,6 C 87 % 1039,2 hPa 0,0 l/m 0 min 0 min 64 W/m 6,4 km/h (2 Bft) 97,87 %
24.01.2023 11:06 2,4 C 2,8 C -0,6 C 87 % 1039,2 hPa 0,0 l/m 0 min 0 min 65 W/m 12,9 km/h (3 Bft) 100,00 %
24.01.2023 11:08 2,4 C 2,8 C -0,6 C 87 % 1039,2 hPa 0,0 l/m 0 min 0 min 66 W/m 12,9 km/h (3 Bft) 100,00 %
24.01.2023 11:10 2,4 C 2,2 C -0,6 C 87 % 1039,2 hPa 0,0 l/m 0 min 0 min 67 W/m 12,9 km/h (3 Bft) 100,00 %
24.01.2023 11:12 2,4 C 2,2 C -0,6 C 87 % 1039,2 hPa 0,0 l/m 0 min 0 min 67 W/m 12,9 km/h (3 Bft) 100,00 %
24.01.2023 11:14 2,4 C 2,8 C -0,6 C 87 % 1039,2 hPa 0,0 l/m 0 min 0 min 67 W/m 6,4 km/h (2 Bft) 97,87 %
24.01.2023 11:16 2,5 C 2,8 C -0,6 C 87 % 1039,2 hPa 0,0 l/m 0 min 0 min 67 W/m 6,4 km/h (2 Bft) 100,00 %
24.01.2023 11:18 2,5 C 2,8 C -0,6 C 87 % 1039,2 hPa 0,0 l/m 0 min 0 min 67 W/m 16,1 km/h (3 Bft) 100,00 %
24.01.2023 11:20 2,5 C 2,8 C -0,6 C 87 % 1039,2 hPa 0,0 l/m 0 min 0 min 67 W/m 9,7 km/h (2 Bft) 100,00 %
24.01.2023 11:22 2,5 C 2,8 C -0,6 C 87 % 1039,2 hPa 0,0 l/m 0 min 0 min 69 W/m 6,4 km/h (2 Bft) 93,62 %
24.01.2023 11:24 2,5 C 2,8 C -0,6 C 87 % 1039,2 hPa 0,0 l/m 0 min 0 min 67 W/m 9,7 km/h (2 Bft) 100,00 %
24.01.2023 11:26 2,5 C 2,8 C -0,6 C 87 % 1039,2 hPa 0,0 l/m 0 min 0 min 70 W/m 12,9 km/h (3 Bft) 100,00 %
24.01.2023 11:28 2,6 C 2,8 C -0,6 C 87 % 1039,2 hPa 0,0 l/m 0 min 0 min 70 W/m 9,7 km/h (2 Bft) 100,00 %
24.01.2023 11:30 2,6 C 2,8 C -0,6 C 87 % 1039,1 hPa 0,0 l/m 0 min 0 min 72 W/m 12,9 km/h (3 Bft) 100,00 %
24.01.2023 11:32 2,6 C 2,8 C -0,6 C 87 % 1039,1 hPa 0,0 l/m 0 min 0 min 72 W/m 6,4 km/h (2 Bft) 95,65 %
24.01.2023 11:34 2,6 C 2,8 C -0,6 C 87 % 1039,1 hPa 0,0 l/m 0 min 0 min 76 W/m 6,4 km/h (2 Bft) 100,00 %
24.01.2023 11:36 2,6 C 2,8 C -0,6 C 87 % 1039,1 hPa 0,0 l/m 0 min 0 min 75 W/m 6,4 km/h (2 Bft) 97,87 %
24.01.2023 11:38 2,6 C 2,8 C -0,6 C 87 % 1039,0 hPa 0,0 l/m 0 min 0 min 71 W/m 6,4 km/h (2 Bft) 100,00 %
24.01.2023 11:40 2,6 C 2,8 C -0,6 C 87 % 1039,1 hPa 0,0 l/m 0 min 0 min 70 W/m 6,4 km/h (2 Bft) 95,74 %
24.01.2023 11:42 2,7 C 2,8 C -0,6 C 87 % 1039,2 hPa 0,0 l/m 0 min 0 min 71 W/m 9,7 km/h (2 Bft) 91,49 %
24.01.2023 11:44 2,6 C 2,8 C -0,6 C 87 % 1039,1 hPa 0,0 l/m 0 min 0 min 72 W/m 6,4 km/h (2 Bft) 97,83 %
24.01.2023 11:46 2,6 C 2,8 C -0,6 C 87 % 1039,2 hPa 0,0 l/m 0 min 0 min 72 W/m 9,7 km/h (2 Bft) 95,74 %
24.01.2023 11:48 2,6 C 2,8 C -0,6 C 86 % 1039,1 hPa 0,0 l/m 0 min 0 min 72 W/m 9,7 km/h (2 Bft) 93,62 %
24.01.2023 11:50 2,6 C 2,8 C -0,6 C 86 % 1039,1 hPa 0,0 l/m 0 min 0 min 72 W/m 9,7 km/h (2 Bft) 93,62 %
24.01.2023 11:52 2,6 C 2,8 C -0,6 C 86 % 1039,1 hPa 0,0 l/m 0 min 0 min 71 W/m 6,4 km/h (2 Bft) 95,74 %
24.01.2023 11:54 2,6 C 2,8 C -0,6 C 86 % 1039,2 hPa 0,0 l/m 0 min 0 min 73 W/m 12,9 km/h (3 Bft) 95,74 %
24.01.2023 11:56 2,6 C 2,8 C -0,6 C 86 % 1039,1 hPa 0,0 l/m 0 min 0 min 73 W/m 9,7 km/h (2 Bft) 93,62 %
24.01.2023 11:58 2,6 C 2,8 C -0,6 C 86 % 1039,2 hPa 0,0 l/m 0 min 0 min 72 W/m 9,7 km/h (2 Bft) 93,48 %
24.01.2023 12:00 2,6 C 2,8 C -0,6 C 86 % 1039,2 hPa 0,0 l/m 0 min 0 min 70 W/m 9,7 km/h (2 Bft) 93,62 %
24.01.2023 12:02 2,6 C 2,8 C -0,6 C 86 % 1039,2 hPa 0,0 l/m 0 min 0 min 70 W/m 6,4 km/h (2 Bft) 93,62 %
24.01.2023 12:04 2,7 C 2,8 C -0,6 C 86 % 1039,2 hPa 0,0 l/m 0 min 0 min 70 W/m 6,4 km/h (2 Bft) 93,62 %
24.01.2023 12:07 2,7 C 2,8 C -0,6 C 86 % 1039,2 hPa 0,0 l/m 0 min 0 min 72 W/m 6,4 km/h (2 Bft) 90,28 %
24.01.2023 12:08 2,7 C 2,8 C -0,6 C 86 % 1039,2 hPa 0,0 l/m 0 min 0 min 74 W/m 6,4 km/h (2 Bft) 95,83 %
24.01.2023 12:10 2,7 C 2,8 C -0,6 C 87 % 1039,2 hPa 0,0 l/m 0 min 0 min 76 W/m 9,7 km/h (2 Bft) 93,48 %
24.01.2023 12:12 2,7 C 2,8 C -0,6 C 87 % 1039,2 hPa 0,0 l/m 0 min 0 min 76 W/m 9,7 km/h (2 Bft) 89,36 %
24.01.2023 12:14 2,7 C 2,8 C -0,6 C 86 % 1039,2 hPa 0,0 l/m 0 min 0 min 76 W/m 6,4 km/h (2 Bft) 91,49 %
24.01.2023 12:16 2,7 C 2,8 C -0,6 C 86 % 1039,1 hPa 0,0 l/m 0 min 0 min 79 W/m 9,7 km/h (2 Bft) 93,62 %
24.01.2023 12:18 2,8 C 2,8 C -0,6 C 86 % 1039,0 hPa 0,0 l/m 0 min 0 min 88 W/m 12,9 km/h (3 Bft) 91,49 %
24.01.2023 12:20 2,8 C 2,8 C -0,6 C 86 % 1039,0 hPa 0,0 l/m 0 min 0 min 95 W/m 6,4 km/h (2 Bft) 93,62 %
24.01.2023 12:22 2,8 C 2,8 C -0,6 C 86 % 1039,0 hPa 0,0 l/m 0 min 0 min 99 W/m 9,7 km/h (2 Bft) 91,49 %
24.01.2023 12:24 2,8 C 2,8 C -0,6 C 86 % 1039,0 hPa 0,0 l/m 0 min 0 min 102 W/m 6,4 km/h (2 Bft) 93,48 %
24.01.2023 12:26 2,8 C 2,8 C -0,6 C 86 % 1039,0 hPa 0,0 l/m 0 min 0 min 102 W/m 12,9 km/h (3 Bft) 95,74 %
24.01.2023 12:28 2,8 C 2,8 C -0,6 C 86 % 1039,0 hPa 0,0 l/m 0 min 0 min 101 W/m 12,9 km/h (3 Bft) 95,74 %
24.01.2023 12:30 2,8 C 2,8 C -0,6 C 86 % 1039,0 hPa 0,0 l/m 0 min 0 min 98 W/m 9,7 km/h (2 Bft) 95,74 %
24.01.2023 12:32 2,8 C 2,8 C -0,6 C 85 % 1039,0 hPa 0,0 l/m 0 min 0 min 98 W/m 9,7 km/h (2 Bft) 95,74 %
24.01.2023 12:34 2,8 C 3,3 C -0,6 C 85 % 1038,9 hPa 0,0 l/m 0 min 0 min 94 W/m 6,4 km/h (2 Bft) 100,00 %
24.01.2023 12:36 2,8 C 3,3 C 0,0 C 85 % 1039,0 hPa 0,0 l/m 0 min 0 min 91 W/m 6,4 km/h (2 Bft) 97,14 %
24.01.2023 12:38 2,8 C 3,3 C 0,0 C 85 % 1039,0 hPa 0,0 l/m 0 min 0 min 93 W/m 6,4 km/h (2 Bft) 98,28 %
24.01.2023 12:40 2,8 C 3,3 C 0,0 C 85 % 1038,9 hPa 0,0 l/m 0 min 0 min 96 W/m 9,7 km/h (2 Bft) 100,00 %
24.01.2023 12:42 2,9 C 3,3 C 0,0 C 85 % 1038,9 hPa 0,0 l/m 0 min 0 min 97 W/m 6,4 km/h (2 Bft) 100,00 %
24.01.2023 12:44 2,9 C 3,3 C 0,0 C 85 % 1038,9 hPa 0,0 l/m 0 min 0 min 97 W/m 3,2 km/h (1 Bft) 100,00 %
24.01.2023 12:46 2,9 C 3,3 C 0,0 C 85 % 1038,9 hPa 0,0 l/m 0 min 0 min 97 W/m 6,4 km/h (2 Bft) 100,00 %
24.01.2023 12:48 2,9 C 3,3 C 0,0 C 85 % 1038,8 hPa 0,0 l/m 0 min 0 min 97 W/m 6,4 km/h (2 Bft) 100,00 %
24.01.2023 12:50 3,0 C 3,3 C 0,0 C 85 % 1038,8 hPa 0,0 l/m 0 min 0 min 94 W/m 6,4 km/h (2 Bft) 100,00 %
24.01.2023 12:52 3,0 C 3,3 C 0,0 C 85 % 1038,8 hPa 0,0 l/m 0 min 0 min 89 W/m 12,9 km/h (3 Bft) 100,00 %
24.01.2023 12:54 3,0 C 3,3 C 0,0 C 85 % 1038,8 hPa 0,0 l/m 0 min 0 min 90 W/m 6,4 km/h (2 Bft) 100,00 %
24.01.2023 12:56 3,0 C 3,3 C 0,0 C 85 % 1038,8 hPa 0,0 l/m 0 min 0 min 92 W/m 6,4 km/h (2 Bft) 97,83 %
24.01.2023 12:58 3,1 C 3,3 C 0,0 C 85 % 1038,8 hPa 0,0 l/m 0 min 0 min 93 W/m 6,4 km/h (2 Bft) 100,00 %
24.01.2023 13:00 3,1 C 3,3 C 0,0 C 85 % 1038,7 hPa 0,0 l/m 0 min 0 min 93 W/m 12,9 km/h (3 Bft) 100,00 %
24.01.2023 13:02 3,1 C 3,3 C 0,0 C 85 % 1038,7 hPa 0,0 l/m 0 min 0 min 90 W/m 12,9 km/h (3 Bft) 74,47 %
24.01.2023 13:04 3,1 C 3,3 C 0,0 C 85 % 1038,7 hPa 0,0 l/m 0 min 0 min 89 W/m 9,7 km/h (2 Bft) 75,00 %
24.01.2023 13:06 3,1 C 3,3 C 0,0 C 85 % 1038,6 hPa 0,0 l/m 0 min 0 min 87 W/m 9,7 km/h (2 Bft) 100,00 %
24.01.2023 13:08 3,1 C 3,3 C 0,0 C 85 % 1038,6 hPa 0,0 l/m 0 min 0 min 88 W/m 6,4 km/h (2 Bft) 100,00 %
24.01.2023 13:10 3,1 C 3,3 C 0,0 C 85 % 1038,6 hPa 0,0 l/m 0 min 0 min 88 W/m 6,4 km/h (2 Bft) 100,00 %
24.01.2023 13:12 3,1 C 3,3 C 0,0 C 85 % 1038,6 hPa 0,0 l/m 0 min 0 min 88 W/m 6,4 km/h (2 Bft) 100,00 %
24.01.2023 13:14 3,1 C 3,3 C 0,0 C 85 % 1038,6 hPa 0,0 l/m 0 min 0 min 90 W/m 3,2 km/h (1 Bft) 100,00 %
24.01.2023 13:16 3,1 C 3,3 C 0,0 C 85 % 1038,6 hPa 0,0 l/m 0 min 0 min 91 W/m 9,7 km/h (2 Bft) 97,87 %
24.01.2023 13:18 3,1 C 3,3 C 0,0 C 85 % 1038,5 hPa 0,0 l/m 0 min 0 min 92 W/m 9,7 km/h (2 Bft) 97,87 %
24.01.2023 13:20 3,1 C 3,3 C 0,0 C 85 % 1038,5 hPa 0,0 l/m 0 min 0 min 93 W/m 12,9 km/h (3 Bft) 100,00 %
24.01.2023 13:22 3,1 C 3,3 C 0,0 C 85 % 1038,5 hPa 0,0 l/m 0 min 0 min 95 W/m 9,7 km/h (2 Bft) 100,00 %
24.01.2023 13:24 3,1 C 3,3 C 0,0 C 85 % 1038,4 hPa 0,0 l/m 0 min 0 min 94 W/m 9,7 km/h (2 Bft) 100,00 %
24.01.2023 13:26 3,1 C 3,3 C 0,0 C 85 % 1038,5 hPa 0,0 l/m 0 min 0 min 92 W/m 6,4 km/h (2 Bft) 100,00 %
24.01.2023 13:28 3,1 C 3,3 C 0,0 C 85 % 1038,4 hPa 0,0 l/m 0 min 0 min 91 W/m 3,2 km/h (1 Bft) 100,00 %
24.01.2023 13:30 3,1 C 3,3 C 0,0 C 85 % 1038,5 hPa 0,0 l/m 0 min 0 min 90 W/m 6,4 km/h (2 Bft) 100,00 %
24.01.2023 13:32 3,1 C 3,3 C 0,0 C 85 % 1038,4 hPa 0,0 l/m 0 min 0 min 92 W/m 6,4 km/h (2 Bft) 100,00 %
24.01.2023 13:34 3,1 C 3,3 C 0,0 C 85 % 1038,4 hPa 0,0 l/m 0 min 0 min 95 W/m 6,4 km/h (2 Bft) 100,00 %
24.01.2023 13:36 3,1 C 3,3 C 0,0 C 85 % 1038,3 hPa 0,0 l/m 0 min 0 min 98 W/m 6,4 km/h (2 Bft) 100,00 %
24.01.2023 13:38 3,2 C 3,3 C 0,0 C 85 % 1038,3 hPa 0,0 l/m 0 min 0 min 100 W/m 9,7 km/h (2 Bft) 95,65 %
24.01.2023 13:40 3,2 C 3,3 C 0,0 C 85 % 1038,3 hPa 0,0 l/m 0 min 0 min 103 W/m 6,4 km/h (2 Bft) 100,00 %
24.01.2023 13:42 3,2 C 3,3 C 0,0 C 85 % 1038,2 hPa 0,0 l/m 0 min 0 min 107 W/m 12,9 km/h (3 Bft) 100,00 %
24.01.2023 13:44 3,1 C 3,3 C 0,0 C 85 % 1038,2 hPa 0,0 l/m 0 min 0 min 106 W/m 6,4 km/h (2 Bft) 100,00 %
24.01.2023 13:46 3,1 C 3,3 C 0,0 C 85 % 1038,2 hPa 0,0 l/m 0 min 0 min 101 W/m 9,7 km/h (2 Bft) 97,87 %
24.01.2023 13:48 3,2 C 3,3 C 0,0 C 85 % 1038,2 hPa 0,0 l/m 0 min 0 min 98 W/m 6,4 km/h (2 Bft) 100,00 %
24.01.2023 13:50 3,1 C 3,3 C 0,0 C 84 % 1038,2 hPa 0,0 l/m 0 min 0 min 99 W/m 6,4 km/h (2 Bft) 100,00 %
24.01.2023 13:52 3,1 C 3,3 C 0,0 C 84 % 1038,1 hPa 0,0 l/m 0 min 0 min 105 W/m 6,4 km/h (2 Bft) 100,00 %
24.01.2023 13:54 3,1 C 3,3 C 0,0 C 84 % 1038,1 hPa 0,0 l/m 0 min 0 min 110 W/m 6,4 km/h (2 Bft) 100,00 %
24.01.2023 13:56 3,1 C 3,3 C 0,0 C 84 % 1038,1 hPa 0,0 l/m 0 min 0 min 112 W/m 6,4 km/h (2 Bft) 100,00 %
24.01.2023 13:58 3,1 C 3,3 C 0,0 C 84 % 1038,1 hPa 0,0 l/m 0 min 0 min 109 W/m 6,4 km/h (2 Bft) 97,87 %
24.01.2023 14:00 3,2 C 3,3 C 0,0 C 84 % 1038,0 hPa 0,0 l/m 0 min 0 min 107 W/m 6,4 km/h (2 Bft) 95,74 %
24.01.2023 14:02 3,2 C 3,3 C 0,0 C 84 % 1038,1 hPa 0,0 l/m 0 min 0 min 103 W/m 12,9 km/h (3 Bft) 97,87 %
24.01.2023 14:04 3,1 C 3,3 C 0,0 C 84 % 1038,0 hPa 0,0 l/m 0 min 0 min 98 W/m 6,4 km/h (2 Bft) 97,83 %
24.01.2023 14:06 3,1 C 3,3 C 0,0 C 84 % 1038,0 hPa 0,0 l/m 0 min 0 min 97 W/m 12,9 km/h (3 Bft) 93,62 %
24.01.2023 14:08 3,1 C 3,3 C 0,0 C 84 % 1038,0 hPa 0,0 l/m 0 min 0 min 92 W/m 16,1 km/h (3 Bft) 93,62 %
24.01.2023 14:10 3,1 C 3,3 C 0,0 C 84 % 1038,0 hPa 0,0 l/m 0 min 0 min 89 W/m 16,1 km/h (3 Bft) 97,87 %
24.01.2023 14:12 3,1 C 3,3 C 0,0 C 84 % 1038,1 hPa 0,0 l/m 0 min 0 min 87 W/m 9,7 km/h (2 Bft) 95,74 %
24.01.2023 14:14 3,1 C 3,3 C 0,0 C 84 % 1038,1 hPa 0,0 l/m 0 min 0 min 86 W/m 6,4 km/h (2 Bft) 97,87 %
24.01.2023 14:16 3,1 C 3,3 C 0,0 C 84 % 1038,1 hPa 0,0 l/m 0 min 0 min 84 W/m 6,4 km/h (2 Bft) 97,83 %
24.01.2023 14:18 3,1 C 3,3 C 0,0 C 84 % 1038,1 hPa 0,0 l/m 0 min 0 min 81 W/m 6,4 km/h (2 Bft) 95,74 %
24.01.2023 14:20 3,1 C 3,3 C 0,0 C 84 % 1038,1 hPa 0,0 l/m 0 min 0 min 78 W/m 9,7 km/h (2 Bft) 97,87 %
24.01.2023 14:22 3,1 C 3,3 C 0,0 C 84 % 1038,1 hPa 0,0 l/m 0 min 0 min 77 W/m 9,7 km/h (2 Bft) 97,87 %
24.01.2023 14:24 3,1 C 3,3 C 0,0 C 84 % 1038,1 hPa 0,0 l/m 0 min 0 min 78 W/m 9,7 km/h (2 Bft) 97,87 %
24.01.2023 14:26 3,1 C 3,3 C 0,0 C 84 % 1038,1 hPa 0,0 l/m 0 min 0 min 80 W/m 6,4 km/h (2 Bft) 97,87 %
24.01.2023 14:28 3,1 C 3,3 C 0,0 C 84 % 1038,1 hPa 0,0 l/m 0 min 0 min 78 W/m 6,4 km/h (2 Bft) 95,65 %
24.01.2023 14:30 3,1 C 3,3 C 0,0 C 85 % 1038,1 hPa 0,0 l/m 0 min 0 min 76 W/m 12,9 km/h (3 Bft) 93,62 %
24.01.2023 14:32 3,1 C 3,3 C 0,0 C 85 % 1038,1 hPa 0,0 l/m 0 min 0 min 76 W/m 9,7 km/h (2 Bft) 93,62 %
24.01.2023 14:34 3,1 C 3,3 C 0,0 C 85 % 1038,1 hPa 0,0 l/m 0 min 0 min 76 W/m 6,4 km/h (2 Bft) 95,74 %
24.01.2023 14:36 3,1 C 2,8 C 0,0 C 85 % 1038,1 hPa 0,0 l/m 0 min 0 min 74 W/m 12,9 km/h (3 Bft) 91,49 %
24.01.2023 14:38 3,1 C 2,8 C -0,6 C 85 % 1038,1 hPa 0,0 l/m 0 min 0 min 75 W/m 9,7 km/h (2 Bft) 95,74 %
24.01.2023 14:40 3,1 C 2,8 C -0,6 C 84 % 1038,1 hPa 0,0 l/m 0 min 0 min 75 W/m 12,9 km/h (3 Bft) 95,74 %
24.01.2023 14:42 3,1 C 3,3 C -0,6 C 85 % 1038,1 hPa 0,0 l/m 0 min 0 min 76 W/m 9,7 km/h (2 Bft) 95,65 %
24.01.2023 14:44 3,1 C 3,3 C 0,0 C 84 % 1038,1 hPa 0,0 l/m 0 min 0 min 77 W/m 9,7 km/h (2 Bft) 95,74 %
24.01.2023 14:46 3,1 C 3,3 C 0,0 C 85 % 1038,0 hPa 0,0 l/m 0 min 0 min 74 W/m 9,7 km/h (2 Bft) 93,62 %
24.01.2023 14:48 3,1 C 3,3 C 0,0 C 84 % 1038,0 hPa 0,0 l/m 0 min 0 min 74 W/m 6,4 km/h (2 Bft) 95,74 %
24.01.2023 14:50 3,1 C 3,3 C 0,0 C 85 % 1038,0 hPa 0,0 l/m 0 min 0 min 75 W/m 6,4 km/h (2 Bft) 95,74 %
24.01.2023 14:52 3,1 C 3,3 C 0,0 C 85 % 1038,0 hPa 0,0 l/m 0 min 0 min 73 W/m 6,4 km/h (2 Bft) 95,74 %
24.01.2023 14:54 3,1 C 3,3 C 0,0 C 85 % 1038,0 hPa 0,0 l/m 0 min 0 min 70 W/m 3,2 km/h (1 Bft) 93,48 %
24.01.2023 14:56 3,1 C 3,3 C 0,0 C 84 % 1038,1 hPa 0,0 l/m 0 min 0 min 69 W/m 6,4 km/h (2 Bft) 95,74 %
24.01.2023 14:58 3,1 C 3,3 C 0,0 C 84 % 1038,1 hPa 0,0 l/m 0 min 0 min 69 W/m 6,4 km/h (2 Bft) 93,62 %
24.01.2023 15:00 3,1 C 3,3 C -0,6 C 84 % 1038,1 hPa 0,0 l/m 0 min 0 min 69 W/m 9,7 km/h (2 Bft) 95,74 %
24.01.2023 15:02 3,1 C 2,8 C -0,6 C 84 % 1038,0 hPa 0,0 l/m 0 min 0 min 69 W/m 16,1 km/h (3 Bft) 93,62 %
24.01.2023 15:04 3,0 C 2,8 C -0,6 C 84 % 1038,1 hPa 0,0 l/m 0 min 0 min 67 W/m 12,9 km/h (3 Bft) 93,62 %
24.01.2023 15:06 3,0 C 2,8 C -0,6 C 84 % 1038,1 hPa 0,0 l/m 0 min 0 min 65 W/m 6,4 km/h (2 Bft) 96,00 %
24.01.2023 15:08 3,0 C 2,8 C -0,6 C 84 % 1038,1 hPa 0,0 l/m 0 min 0 min 63 W/m 6,4 km/h (2 Bft) 95,74 %
24.01.2023 15:10 3,0 C 2,8 C -0,6 C 84 % 1038,1 hPa 0,0 l/m 0 min 0 min 63 W/m 12,9 km/h (3 Bft) 93,62 %
24.01.2023 15:12 2,9 C 2,8 C -0,6 C 84 % 1038,1 hPa 0,0 l/m 0 min 0 min 62 W/m 6,4 km/h (2 Bft) 95,74 %
24.01.2023 15:14 2,9 C 2,8 C -0,6 C 84 % 1038,1 hPa 0,0 l/m 0 min 0 min 61 W/m 9,7 km/h (2 Bft) 97,87 %
24.01.2023 15:16 2,9 C 2,8 C -0,6 C 84 % 1038,1 hPa 0,0 l/m 0 min 0 min 59 W/m 9,7 km/h (2 Bft) 97,83 %
24.01.2023 15:18 2,9 C 2,8 C -0,6 C 84 % 1038,1 hPa 0,0 l/m 0 min 0 min 57 W/m 9,7 km/h (2 Bft) 97,87 %
24.01.2023 15:20 2,9 C 2,8 C -0,6 C 84 % 1038,1 hPa 0,0 l/m 0 min 0 min 54 W/m 12,9 km/h (3 Bft) 97,87 %
24.01.2023 15:22 2,9 C 2,8 C -0,6 C 84 % 1038,2 hPa 0,0 l/m 0 min 0 min 53 W/m 9,7 km/h (2 Bft) 97,87 %
24.01.2023 15:24 2,9 C 2,8 C -0,6 C 84 % 1038,1 hPa 0,0 l/m 0 min 0 min 51 W/m 9,7 km/h (2 Bft) 100,00 %
24.01.2023 15:26 2,9 C 2,8 C -0,6 C 84 % 1038,1 hPa 0,0 l/m 0 min 0 min 51 W/m 6,4 km/h (2 Bft) 100,00 %
24.01.2023 15:28 2,9 C 2,8 C -0,6 C 84 % 1038,1 hPa 0,0 l/m 0 min 0 min 52 W/m 12,9 km/h (3 Bft) 100,00 %
24.01.2023 15:30 2,9 C 2,8 C -0,6 C 84 % 1038,1 hPa 0,0 l/m 0 min 0 min 50 W/m 12,9 km/h (3 Bft) 97,83 %
24.01.2023 15:32 2,8 C 2,8 C -0,6 C 84 % 1038,1 hPa 0,0 l/m 0 min 0 min 49 W/m 6,4 km/h (2 Bft) 97,87 %
24.01.2023 15:34 2,8 C 2,8 C -0,6 C 84 % 1038,1 hPa 0,0 l/m 0 min 0 min 47 W/m 6,4 km/h (2 Bft) 100,00 %
24.01.2023 15:36 2,8 C 2,8 C -0,6 C 84 % 1038,1 hPa 0,0 l/m 0 min 0 min 46 W/m 6,4 km/h (2 Bft) 100,00 %
24.01.2023 15:38 2,8 C 2,8 C -0,6 C 84 % 1038,1 hPa 0,0 l/m 0 min 0 min 44 W/m 9,7 km/h (2 Bft) 97,87 %
24.01.2023 15:40 2,8 C 2,8 C -0,6 C 84 % 1038,1 hPa 0,0 l/m 0 min 0 min 42 W/m 6,4 km/h (2 Bft) 93,62 %
24.01.2023 15:42 2,8 C 2,8 C -0,6 C 84 % 1038,1 hPa 0,0 l/m 0 min 0 min 40 W/m 6,4 km/h (2 Bft) 97,22 %
24.01.2023 15:44 2,8 C 2,8 C -0,6 C 84 % 1038,2 hPa 0,0 l/m 0 min 0 min 40 W/m 6,4 km/h (2 Bft) 100,00 %
24.01.2023 15:46 2,8 C 2,8 C -0,6 C 84 % 1038,2 hPa 0,0 l/m 0 min 0 min 38 W/m 6,4 km/h (2 Bft) 100,00 %
24.01.2023 15:48 2,8 C 2,8 C -0,6 C 85 % 1038,1 hPa 0,0 l/m 0 min 0 min 36 W/m 9,7 km/h (2 Bft) 97,83 %
24.01.2023 15:50 2,8 C 2,8 C -0,6 C 85 % 1038,2 hPa 0,0 l/m 0 min 0 min 34 W/m 12,9 km/h (3 Bft) 100,00 %
24.01.2023 15:52 2,8 C 2,8 C -0,6 C 85 % 1038,2 hPa 0,0 l/m 0 min 0 min 33 W/m 3,2 km/h (1 Bft) 100,00 %
24.01.2023 15:54 2,8 C 2,8 C -0,6 C 85 % 1038,2 hPa 0,0 l/m 0 min 0 min 32 W/m 6,4 km/h (2 Bft) 97,87 %
24.01.2023 15:56 2,8 C 2,8 C -0,6 C 85 % 1038,3 hPa 0,0 l/m 0 min 0 min 32 W/m 9,7 km/h (2 Bft) 100,00 %
24.01.2023 15:58 2,8 C 2,8 C -0,6 C 85 % 1038,2 hPa 0,0 l/m 0 min 0 min 32 W/m 9,7 km/h (2 Bft) 97,87 %
24.01.2023 16:00 2,8 C 2,2 C -0,6 C 85 % 1038,3 hPa 0,0 l/m 0 min 0 min 30 W/m 6,4 km/h (2 Bft) 95,74 %
24.01.2023 16:02 2,8 C 2,2 C -0,6 C 85 % 1038,2 hPa 0,0 l/m 0 min 0 min 28 W/m 6,4 km/h (2 Bft) 89,36 %
24.01.2023 16:04 2,7 C 2,2 C -0,6 C 85 % 1038,3 hPa 0,0 l/m 0 min 0 min 27 W/m 6,4 km/h (2 Bft) 51,35 %
24.01.2023 16:06 2,7 C 2,2 C -0,6 C 85 % 1038,3 hPa 0,0 l/m 0 min 0 min 25 W/m 9,7 km/h (2 Bft) 96,61 %
24.01.2023 16:08 2,7 C 2,2 C -0,6 C 85 % 1038,3 hPa 0,0 l/m 0 min 0 min 23 W/m 6,4 km/h (2 Bft) 97,14 %
24.01.2023 16:10 2,7 C 2,2 C -0,6 C 85 % 1038,4 hPa 0,0 l/m 0 min 0 min 21 W/m 6,4 km/h (2 Bft) 97,87 %
24.01.2023 16:12 2,7 C 2,2 C -0,6 C 85 % 1038,4 hPa 0,0 l/m 0 min 0 min 20 W/m 3,2 km/h (1 Bft) 95,74 %
24.01.2023 16:14 2,7 C 2,2 C -0,6 C 85 % 1038,4 hPa 0,0 l/m 0 min 0 min 19 W/m 6,4 km/h (2 Bft) 97,87 %
24.01.2023 16:16 2,7 C 2,2 C -0,6 C 85 % 1038,4 hPa 0,0 l/m 0 min 0 min 18 W/m 6,4 km/h (2 Bft) 97,83 %
24.01.2023 16:18 2,7 C 2,2 C -1,1 C 85 % 1038,3 hPa 0,0 l/m 0 min 0 min 16 W/m 6,4 km/h (2 Bft) 97,87 %
24.01.2023 16:20 2,7 C 2,2 C -1,1 C 85 % 1038,4 hPa 0,0 l/m 0 min 0 min 16 W/m 9,7 km/h (2 Bft) 97,87 %
24.01.2023 16:22 2,7 C 2,2 C -1,1 C 85 % 1038,4 hPa 0,0 l/m 0 min 0 min 16 W/m 6,4 km/h (2 Bft) 97,87 %
24.01.2023 16:24 2,7 C 2,2 C -1,1 C 85 % 1038,4 hPa 0,0 l/m 0 min 0 min 16 W/m 12,9 km/h (3 Bft) 97,87 %
24.01.2023 16:26 2,6 C 2,2 C -1,1 C 86 % 1038,5 hPa 0,0 l/m 0 min 0 min 14 W/m 9,7 km/h (2 Bft) 97,87 %
24.01.2023 16:28 2,6 C 2,2 C -1,1 C 86 % 1038,5 hPa 0,0 l/m 0 min 0 min 14 W/m 6,4 km/h (2 Bft) 97,83 %
24.01.2023 16:30 2,6 C 2,2 C -1,1 C 86 % 1038,5 hPa 0,0 l/m 0 min 0 min 14 W/m 9,7 km/h (2 Bft) 100,00 %
24.01.2023 16:32 2,6 C 2,2 C -1,1 C 86 % 1038,5 hPa 0,0 l/m 0 min 0 min 14 W/m 6,4 km/h (2 Bft) 100,00 %
24.01.2023 16:34 2,5 C 2,2 C -1,1 C 85 % 1038,4 hPa 0,0 l/m 0 min 0 min 14 W/m 6,4 km/h (2 Bft) 100,00 %
24.01.2023 16:36 2,5 C 2,2 C -1,1 C 85 % 1038,4 hPa 0,0 l/m 0 min 0 min 14 W/m 12,9 km/h (3 Bft) 100,00 %
24.01.2023 16:38 2,4 C 2,2 C -1,1 C 85 % 1038,4 hPa 0,0 l/m 0 min 0 min 13 W/m 6,4 km/h (2 Bft) 100,00 %
24.01.2023 16:40 2,4 C 2,2 C -1,1 C 85 % 1038,4 hPa 0,0 l/m 0 min 0 min 12 W/m 6,4 km/h (2 Bft) 100,00 %
24.01.2023 16:42 2,4 C 2,2 C -1,1 C 85 % 1038,3 hPa 0,0 l/m 0 min 0 min 11 W/m 6,4 km/h (2 Bft) 97,83 %
24.01.2023 16:44 2,4 C 1,7 C -1,1 C 85 % 1038,3 hPa 0,0 l/m 0 min 0 min 11 W/m 6,4 km/h (2 Bft) 100,00 %
24.01.2023 16:46 2,4 C 1,7 C -1,1 C 85 % 1038,2 hPa 0,0 l/m 0 min 0 min 9 W/m 6,4 km/h (2 Bft) 97,87 %
24.01.2023 16:48 2,4 C 2,2 C -1,1 C 85 % 1038,2 hPa 0,0 l/m 0 min 0 min 9 W/m 3,2 km/h (1 Bft) 97,87 %
24.01.2023 16:50 2,4 C 1,7 C -1,1 C 85 % 1038,2 hPa 0,0 l/m 0 min 0 min 7 W/m 6,4 km/h (2 Bft) 100,00 %
24.01.2023 16:52 2,4 C 1,7 C -1,1 C 85 % 1038,3 hPa 0,0 l/m 0 min 0 min 7 W/m 9,7 km/h (2 Bft) 100,00 %
24.01.2023 16:54 2,4 C 1,7 C -1,1 C 85 % 1038,3 hPa 0,0 l/m 0 min 0 min 5 W/m 6,4 km/h (2 Bft) 97,83 %
24.01.2023 16:56 2,4 C 1,7 C -1,1 C 85 % 1038,3 hPa 0,0 l/m 0 min 0 min 5 W/m 9,7 km/h (2 Bft) 100,00 %
24.01.2023 16:58 2,3 C 1,7 C -1,1 C 85 % 1038,3 hPa 0,0 l/m 0 min 0 min 5 W/m 9,7 km/h (2 Bft) 53,49 %
24.01.2023 17:00 2,3 C 1,7 C -1,1 C 85 % 1038,3 hPa 0,0 l/m 0 min 0 min 4 W/m 9,7 km/h (2 Bft) 100,00 %
24.01.2023 17:02 2,3 C 1,7 C -1,1 C 85 % 1038,3 hPa 0,0 l/m 0 min 0 min 0 W/m 9,7 km/h (2 Bft) 97,87 %
24.01.2023 17:04 2,3 C 1,7 C -1,1 C 85 % 1038,2 hPa 0,0 l/m 0 min 0 min 0 W/m 6,4 km/h (2 Bft) 97,87 %
24.01.2023 17:06 2,3 C 1,7 C -1,1 C 85 % 1038,2 hPa 0,0 l/m 0 min 0 min 0 W/m 6,4 km/h (2 Bft) 98,28 %
24.01.2023 17:08 2,3 C 1,7 C -1,1 C 85 % 1038,2 hPa 0,0 l/m 0 min 0 min 0 W/m 6,4 km/h (2 Bft) 97,14 %
24.01.2023 17:10 2,3 C 1,7 C -1,1 C 85 % 1038,3 hPa 0,0 l/m 0 min 0 min 0 W/m 6,4 km/h (2 Bft) 97,87 %
24.01.2023 17:12 2,3 C 1,7 C -1,1 C 86 % 1038,3 hPa 0,0 l/m 0 min 0 min 0 W/m 6,4 km/h (2 Bft) 97,87 %
24.01.2023 17:14 2,3 C 1,7 C -1,1 C 86 % 1038,3 hPa 0,0 l/m 0 min 0 min 0 W/m 6,4 km/h (2 Bft) 97,87 %
24.01.2023 17:16 2,3 C 1,7 C -1,1 C 86 % 1038,3 hPa 0,0 l/m 0 min 0 min 0 W/m 3,2 km/h (1 Bft) 93,62 %
24.01.2023 17:18 2,3 C 1,7 C -1,1 C 86 % 1038,3 hPa 0,0 l/m 0 min 0 min 0 W/m 9,7 km/h (2 Bft) 97,87 %
24.01.2023 17:20 2,3 C 1,7 C -1,1 C 86 % 1038,3 hPa 0,0 l/m 0 min 0 min 0 W/m 6,4 km/h (2 Bft) 97,83 %
24.01.2023 17:22 2,3 C 1,7 C -1,1 C 86 % 1038,4 hPa 0,0 l/m 0 min 0 min 0 W/m 6,4 km/h (2 Bft) 95,74 %
24.01.2023 17:24 2,3 C 1,7 C -1,1 C 86 % 1038,3 hPa 0,0 l/m 0 min 0 min 0 W/m 3,2 km/h (1 Bft) 87,23 %
24.01.2023 17:26 2,3 C 1,7 C -1,7 C 86 % 1038,3 hPa 0,0 l/m 0 min 0 min 0 W/m 3,2 km/h (1 Bft) 97,87 %
24.01.2023 17:28 2,3 C 1,7 C -1,7 C 86 % 1038,3 hPa 0,0 l/m 0 min 0 min 0 W/m 3,2 km/h (1 Bft) 97,87 %
24.01.2023 17:30 2,2 C 1,7 C -1,7 C 86 % 1038,3 hPa 0,0 l/m 0 min 0 min 0 W/m 6,4 km/h (2 Bft) 95,74 %
24.01.2023 17:32 2,2 C 1,7 C -1,7 C 86 % 1038,4 hPa 0,0 l/m 0 min 0 min 0 W/m 6,4 km/h (2 Bft) 95,74 %
24.01.2023 17:34 2,2 C 1,7 C -1,7 C 86 % 1038,3 hPa 0,0 l/m 0 min 0 min 0 W/m 6,4 km/h (2 Bft) 95,65 %
24.01.2023 17:36 2,2 C 1,7 C -1,7 C 86 % 1038,3 hPa 0,0 l/m 0 min 0 min 0 W/m 6,4 km/h (2 Bft) 93,62 %
24.01.2023 17:38 2,2 C 1,7 C -1,7 C 86 % 1038,3 hPa 0,0 l/m 0 min 0 min 0 W/m 6,4 km/h (2 Bft) 93,62 %
24.01.2023 17:40 2,2 C 1,7 C -1,7 C 86 % 1038,3 hPa 0,0 l/m 0 min 0 min 0 W/m 6,4 km/h (2 Bft) 95,74 %
24.01.2023 17:42 2,2 C 1,7 C -1,7 C 87 % 1038,3 hPa 0,0 l/m 0 min 0 min 0 W/m 9,7 km/h (2 Bft) 93,62 %
24.01.2023 17:44 2,1 C 1,7 C -1,7 C 87 % 1038,3 hPa 0,0 l/m 0 min 0 min 0 W/m 6,4 km/h (2 Bft) 95,74 %
24.01.2023 17:46 2,1 C 1,7 C -1,7 C 86 % 1038,3 hPa 0,0 l/m 0 min 0 min 0 W/m 6,4 km/h (2 Bft) 95,65 %
24.01.2023 17:48 2,1 C 1,7 C -1,7 C 86 % 1038,3 hPa 0,0 l/m 0 min 0 min 0 W/m 6,4 km/h (2 Bft) 89,36 %
24.01.2023 17:50 2,1 C 1,7 C -1,7 C 86 % 1038,3 hPa 0,0 l/m 0 min 0 min 0 W/m 3,2 km/h (1 Bft) 70,21 %
24.01.2023 17:52 2,1 C 1,7 C -1,7 C 86 % 1038,3 hPa 0,0 l/m 0 min 0 min 0 W/m 6,4 km/h (2 Bft) 71,79 %
24.01.2023 17:54 2,1 C 1,7 C -1,7 C 86 % 1038,3 hPa 0,0 l/m 0 min 0 min 0 W/m 6,4 km/h (2 Bft) 95,74 %
24.01.2023 17:56 2,1 C 1,7 C -1,7 C 87 % 1038,3 hPa 0,0 l/m 0 min 0 min 0 W/m 9,7 km/h (2 Bft) 95,65 %
24.01.2023 17:58 2,1 C 1,7 C -1,7 C 87 % 1038,3 hPa 0,0 l/m 0 min 0 min 0 W/m 6,4 km/h (2 Bft) 95,74 %
24.01.2023 18:00 2,1 C 1,1 C -1,7 C 87 % 1038,4 hPa 0,0 l/m 0 min 0 min 0 W/m 6,4 km/h (2 Bft) 95,65 %
24.01.2023 18:02 2,0 C 1,1 C -1,7 C 87 % 1038,3 hPa 0,0 l/m 0 min 0 min 0 W/m 9,7 km/h (2 Bft) 95,74 %
24.01.2023 18:04 2,0 C 1,1 C -1,7 C 87 % 1038,3 hPa 0,0 l/m 0 min 0 min 0 W/m 6,4 km/h (2 Bft) 89,58 %
24.01.2023 18:07 1,9 C 1,1 C -1,7 C 87 % 1038,3 hPa 0,0 l/m 0 min 0 min 0 W/m 3,2 km/h (1 Bft) 84,29 %
24.01.2023 18:08 1,9 C 1,1 C -1,7 C 87 % 1038,3 hPa 0,0 l/m 0 min 0 min 0 W/m 3,2 km/h (1 Bft) 95,83 %
24.01.2023 18:10 1,9 C 1,1 C -1,7 C 87 % 1038,3 hPa 0,0 l/m 0 min 0 min 0 W/m 6,4 km/h (2 Bft) 95,74 %
24.01.2023 18:12 1,9 C 1,1 C -1,7 C 87 % 1038,3 hPa 0,0 l/m 0 min 0 min 0 W/m 6,4 km/h (2 Bft) 93,48 %
24.01.2023 18:14 1,9 C 1,1 C -1,7 C 87 % 1038,3 hPa 0,0 l/m 0 min 0 min 0 W/m 6,4 km/h (2 Bft) 95,74 %
24.01.2023 18:16 1,9 C 1,1 C -1,7 C 87 % 1038,3 hPa 0,0 l/m 0 min 0 min 0 W/m 6,4 km/h (2 Bft) 93,62 %
24.01.2023 18:18 1,9 C 1,1 C -1,7 C 87 % 1038,3 hPa 0,0 l/m 0 min 0 min 0 W/m 3,2 km/h (1 Bft) 93,62 %
24.01.2023 18:20 1,9 C 1,1 C -1,7 C 87 % 1038,3 hPa 0,0 l/m 0 min 0 min 0 W/m 3,2 km/h (1 Bft) 95,74 %
24.01.2023 18:22 1,9 C 1,1 C -1,7 C 87 % 1038,4 hPa 0,0 l/m 0 min 0 min 0 W/m 3,2 km/h (1 Bft) 95,74 %
24.01.2023 18:24 1,9 C 1,1 C -1,7 C 87 % 1038,4 hPa 0,0 l/m 0 min 0 min 0 W/m 3,2 km/h (1 Bft) 95,65 %
24.01.2023 18:26 1,8 C 1,1 C -1,7 C 87 % 1038,4 hPa 0,0 l/m 0 min 0 min 0 W/m 6,4 km/h (2 Bft) 97,87 %
24.01.2023 18:28 1,9 C 1,1 C -1,7 C 87 % 1038,4 hPa 0,0 l/m 0 min 0 min 0 W/m 6,4 km/h (2 Bft) 97,87 %
24.01.2023 18:30 1,9 C 1,7 C -1,7 C 87 % 1038,4 hPa 0,0 l/m 0 min 0 min 0 W/m 3,2 km/h (1 Bft) 76,60 %
24.01.2023 18:32 1,9 C 1,7 C -1,7 C 87 % 1038,4 hPa 0,0 l/m 0 min 0 min 0 W/m 6,4 km/h (2 Bft) 61,70 %
24.01.2023 18:34 1,9 C 1,7 C -1,7 C 87 % 1038,4 hPa 0,0 l/m 0 min 0 min 0 W/m 6,4 km/h (2 Bft) 74,47 %
24.01.2023 18:36 1,9 C 1,7 C -1,7 C 87 % 1038,4 hPa 0,0 l/m 0 min 0 min 0 W/m 6,4 km/h (2 Bft) 76,60 %
24.01.2023 18:38 1,9 C 1,7 C -1,7 C 87 % 1038,4 hPa 0,0 l/m 0 min 0 min 0 W/m 6,4 km/h (2 Bft) 52,17 %
24.01.2023 18:40 1,9 C 1,1 C -1,7 C 87 % 1038,4 hPa 0,0 l/m 0 min 0 min 0 W/m 9,7 km/h (2 Bft) 59,57 %
24.01.2023 18:42 1,9 C 1,7 C -1,7 C 87 % 1038,4 hPa 0,0 l/m 0 min 0 min 0 W/m 12,9 km/h (3 Bft) 70,21 %
24.01.2023 18:44 1,8 C 1,7 C -1,7 C 87 % 1038,4 hPa 0,0 l/m 0 min 0 min 0 W/m 9,7 km/h (2 Bft) 82,98 %
24.01.2023 18:46 1,8 C 1,7 C -1,7 C 86 % 1038,4 hPa 0,0 l/m 0 min 0 min 0 W/m 6,4 km/h (2 Bft) 93,62 %
24.01.2023 18:48 1,8 C 1,7 C -1,7 C 86 % 1038,4 hPa 0,0 l/m 0 min 0 min 0 W/m 6,4 km/h (2 Bft) 87,23 %
24.01.2023 18:50 1,8 C 1,7 C -1,7 C 86 % 1038,4 hPa 0,0 l/m 0 min 0 min 0 W/m 12,9 km/h (3 Bft) 86,96 %
24.01.2023 18:52 1,8 C 1,7 C -1,7 C 86 % 1038,5 hPa 0,0 l/m 0 min 0 min 0 W/m 6,4 km/h (2 Bft) 85,11 %
24.01.2023 18:54 1,8 C 1,7 C -1,7 C 86 % 1038,5 hPa 0,0 l/m 0 min 0 min 0 W/m 6,4 km/h (2 Bft) 63,83 %
24.01.2023 18:56 1,8 C 1,7 C -1,7 C 86 % 1038,4 hPa 0,0 l/m 0 min 0 min 0 W/m 9,7 km/h (2 Bft) 65,96 %
24.01.2023 18:58 1,8 C 1,7 C -1,7 C 86 % 1038,5 hPa 0,0 l/m 0 min 0 min 0 W/m 6,4 km/h (2 Bft) 70,21 %
24.01.2023 19:00 1,8 C 1,7 C -1,7 C 86 % 1038,5 hPa 0,0 l/m 0 min 0 min 0 W/m 6,4 km/h (2 Bft) 100,00 %
24.01.2023 19:02 1,8 C 1,7 C -1,7 C 86 % 1038,5 hPa 0,0 l/m 0 min 0 min 0 W/m 3,2 km/h (1 Bft) 95,65 %
24.01.2023 19:04 1,8 C 1,7 C -1,7 C 86 % 1038,5 hPa 0,0 l/m 0 min 0 min 0 W/m 3,2 km/h (1 Bft) 95,74 %
24.01.2023 19:06 1,8 C 1,7 C -1,7 C 86 % 1038,4 hPa 0,0 l/m 0 min 0 min 0 W/m 3,2 km/h (1 Bft) 76,27 %
24.01.2023 19:08 1,8 C 1,7 C -1,7 C 87 % 1038,5 hPa 0,0 l/m 0 min 0 min 0 W/m 3,2 km/h (1 Bft) 88,57 %
24.01.2023 19:10 1,8 C 1,7 C -1,7 C 87 % 1038,5 hPa 0,0 l/m 0 min 0 min 0 W/m 9,7 km/h (2 Bft) 85,11 %
24.01.2023 19:12 1,7 C 1,7 C -1,7 C 87 % 1038,4 hPa 0,0 l/m 0 min 0 min 0 W/m 6,4 km/h (2 Bft) 85,11 %
24.01.2023 19:14 1,7 C 1,7 C -1,7 C 87 % 1038,4 hPa 0,0 l/m 0 min 0 min 0 W/m 6,4 km/h (2 Bft) 78,72 %
24.01.2023 19:16 1,7 C 1,7 C -1,7 C 87 % 1038,4 hPa 0,0 l/m 0 min 0 min 0 W/m 3,2 km/h (1 Bft) 69,57 %
24.01.2023 19:18 1,7 C 1,7 C -1,7 C 87 % 1038,4 hPa 0,0 l/m 0 min 0 min 0 W/m 6,4 km/h (2 Bft) 59,57 %
24.01.2023 19:20 1,7 C 1,7 C -1,7 C 87 % 1038,4 hPa 0,0 l/m 0 min 0 min 0 W/m 3,2 km/h (1 Bft) 72,34 %
24.01.2023 19:22 1,7 C 1,7 C -1,7 C 87 % 1038,4 hPa 0,0 l/m 0 min 0 min 0 W/m 6,4 km/h (2 Bft) 51,06 %
24.01.2023 19:24 1,7 C 1,7 C -1,7 C 87 % 1038,4 hPa 0,0 l/m 0 min 0 min 0 W/m 3,2 km/h (1 Bft) 48,94 %
24.01.2023 19:26 1,7 C 1,7 C -1,7 C 87 % 1038,4 hPa 0,0 l/m 0 min 0 min 0 W/m 6,4 km/h (2 Bft) 61,70 %
24.01.2023 19:28 1,7 C 1,7 C -1,7 C 87 % 1038,4 hPa 0,0 l/m 0 min 0 min 0 W/m 9,7 km/h (2 Bft) 44,68 %
24.01.2023 19:30 1,7 C 1,7 C -1,7 C 87 % 1038,3 hPa 0,0 l/m 0 min 0 min 0 W/m 6,4 km/h (2 Bft) 63,04 %
24.01.2023 19:32 1,7 C 1,7 C -1,7 C 87 % 1038,4 hPa 0,0 l/m 0 min 0 min 0 W/m 6,4 km/h (2 Bft) 68,09 %
24.01.2023 19:34 1,7 C 1,7 C -1,7 C 87 % 1038,4 hPa 0,0 l/m 0 min 0 min 0 W/m 6,4 km/h (2 Bft) 80,85 %
24.01.2023 19:36 1,7 C 1,7 C -1,7 C 87 % 1038,4 hPa 0,0 l/m 0 min 0 min 0 W/m 6,4 km/h (2 Bft) 87,23 %
24.01.2023 19:38 1,7 C 1,7 C -1,7 C 87 % 1038,3 hPa 0,0 l/m 0 min 0 min 0 W/m 6,4 km/h (2 Bft) 82,98 %
24.01.2023 19:40 1,7 C 1,7 C -1,7 C 87 % 1038,3 hPa 0,0 l/m 0 min 0 min 0 W/m 3,2 km/h (1 Bft) 59,57 %
24.01.2023 19:42 1,7 C 1,1 C -1,7 C 87 % 1038,3 hPa 0,0 l/m 0 min 0 min 0 W/m 12,9 km/h (3 Bft) 60,87 %
24.01.2023 19:44 1,7 C 1,1 C -1,7 C 87 % 1038,3 hPa 0,0 l/m 0 min 0 min 0 W/m 6,4 km/h (2 Bft) 78,72 %
24.01.2023 19:46 1,7 C 1,1 C -1,7 C 87 % 1038,3 hPa 0,0 l/m 0 min 0 min 0 W/m 3,2 km/h (1 Bft) 74,47 %
24.01.2023 19:48 1,7 C 1,1 C -1,7 C 87 % 1038,4 hPa 0,0 l/m 0 min 0 min 0 W/m 9,7 km/h (2 Bft) 70,21 %
24.01.2023 19:50 1,7 C 1,1 C -1,7 C 86 % 1038,3 hPa 0,0 l/m 0 min 0 min 0 W/m 6,4 km/h (2 Bft) 61,70 %
24.01.2023 19:52 1,7 C 1,1 C -1,7 C 86 % 1038,3 hPa 0,0 l/m 0 min 0 min 0 W/m 6,4 km/h (2 Bft) 63,83 %
24.01.2023 19:54 1,7 C 1,1 C -1,7 C 86 % 1038,3 hPa 0,0 l/m 0 min 0 min 0 W/m 6,4 km/h (2 Bft) 79,59 %
24.01.2023 19:56 1,6 C 1,1 C -1,7 C 86 % 1038,3 hPa 0,0 l/m 0 min 0 min 0 W/m 6,4 km/h (2 Bft) 76,79 %
24.01.2023 19:58 1,7 C 1,1 C -1,7 C 86 % 1038,3 hPa 0,0 l/m 0 min 0 min 0 W/m 3,2 km/h (1 Bft) 68,29 %
24.01.2023 20:00 1,7 C 1,1 C -1,7 C 87 % 1038,3 hPa 0,0 l/m 0 min 0 min 0 W/m 6,4 km/h (2 Bft) 72,34 %
24.01.2023 20:02 1,7 C 1,7 C -2,2 C 87 % 1038,3 hPa 0,0 l/m 0 min 0 min 0 W/m 6,4 km/h (2 Bft) 78,72 %
24.01.2023 20:04 1,7 C 1,7 C -2,2 C 87 % 1038,4 hPa 0,0 l/m 0 min 0 min 0 W/m 3,2 km/h (1 Bft) 65,31 %
24.01.2023 20:06 1,6 C 1,7 C -1,7 C 87 % 1038,4 hPa 0,0 l/m 0 min 0 min 0 W/m 3,2 km/h (1 Bft) 72,34 %
24.01.2023 20:08 1,6 C 1,1 C -1,7 C 87 % 1038,4 hPa 0,0 l/m 0 min 0 min 0 W/m 6,4 km/h (2 Bft) 95,74 %
24.01.2023 20:10 1,6 C 1,1 C -1,7 C 87 % 1038,4 hPa 0,0 l/m 0 min 0 min 0 W/m 9,7 km/h (2 Bft) 100,00 %
24.01.2023 20:12 1,6 C 1,1 C -1,7 C 87 % 1038,4 hPa 0,0 l/m 0 min 0 min 0 W/m 6,4 km/h (2 Bft) 97,87 %
24.01.2023 20:14 1,6 C 1,1 C -1,7 C 87 % 1038,3 hPa 0,0 l/m 0 min 0 min 0 W/m 6,4 km/h (2 Bft) 95,74 %
24.01.2023 20:16 1,6 C 1,1 C -2,2 C 87 % 1038,3 hPa 0,0 l/m 0 min 0 min 0 W/m 3,2 km/h (1 Bft) 95,74 %
24.01.2023 20:18 1,6 C 1,1 C -2,2 C 87 % 1038,3 hPa 0,0 l/m 0 min 0 min 0 W/m 6,4 km/h (2 Bft) 97,83 %
24.01.2023 20:20 1,6 C 1,1 C -2,2 C 87 % 1038,3 hPa 0,0 l/m 0 min 0 min 0 W/m 6,4 km/h (2 Bft) 93,62 %
24.01.2023 20:22 1,6 C 1,1 C -2,2 C 87 % 1038,3 hPa 0,0 l/m 0 min 0 min 0 W/m 6,4 km/h (2 Bft) 97,87 %
24.01.2023 20:24 1,6 C 1,1 C -2,2 C 87 % 1038,2 hPa 0,0 l/m 0 min 0 min 0 W/m 3,2 km/h (1 Bft) 97,87 %
24.01.2023 20:26 1,6 C 1,1 C -2,2 C 87 % 1038,2 hPa 0,0 l/m 0 min 0 min 0 W/m 3,2 km/h (1 Bft) 93,62 %
24.01.2023 20:28 1,6 C 1,1 C -2,2 C 87 % 1038,2 hPa 0,0 l/m 0 min 0 min 0 W/m 3,2 km/h (1 Bft) 95,74 %
24.01.2023 20:30 1,6 C 1,1 C -2,2 C 87 % 1038,2 hPa 0,0 l/m 0 min 0 min 0 W/m 3,2 km/h (1 Bft) 97,87 %
24.01.2023 20:32 1,6 C 1,1 C -2,2 C 87 % 1038,2 hPa 0,0 l/m 0 min 0 min 0 W/m 3,2 km/h (1 Bft) 100,00 %
24.01.2023 20:34 1,6 C 1,1 C -2,2 C 87 % 1038,2 hPa 0,0 l/m 0 min 0 min 0 W/m 3,2 km/h (1 Bft) 95,74 %
24.01.2023 20:36 1,6 C 1,1 C -2,2 C 87 % 1038,2 hPa 0,0 l/m 0 min 0 min 0 W/m 6,4 km/h (2 Bft) 97,87 %
24.01.2023 20:38 1,6 C 1,1 C -2,2 C 87 % 1038,3 hPa 0,0 l/m 0 min 0 min 0 W/m 3,2 km/h (1 Bft) 100,00 %
24.01.2023 20:40 1,6 C 1,1 C -2,2 C 87 % 1038,3 hPa 0,0 l/m 0 min 0 min 0 W/m 9,7 km/h (2 Bft) 97,87 %
24.01.2023 20:42 1,5 C 1,1 C -2,2 C 87 % 1038,3 hPa 0,0 l/m 0 min 0 min 0 W/m 9,7 km/h (2 Bft) 95,74 %
24.01.2023 20:44 1,5 C 1,1 C -2,2 C 87 % 1038,3 hPa 0,0 l/m 0 min 0 min 0 W/m 3,2 km/h (1 Bft) 100,00 %
24.01.2023 20:46 1,5 C 1,1 C -2,2 C 87 % 1038,3 hPa 0,0 l/m 0 min 0 min 0 W/m 12,9 km/h (3 Bft) 97,83 %
24.01.2023 20:48 1,5 C 1,1 C -2,2 C 87 % 1038,3 hPa 0,0 l/m 0 min 0 min 0 W/m 6,4 km/h (2 Bft) 97,87 %
24.01.2023 20:50 1,4 C 1,1 C -2,2 C 87 % 1038,3 hPa 0,0 l/m 0 min 0 min 0 W/m 6,4 km/h (2 Bft) 100,00 %
24.01.2023 20:52 1,4 C 1,1 C -2,2 C 87 % 1038,3 hPa 0,0 l/m 0 min 0 min 0 W/m 3,2 km/h (1 Bft) 93,62 %
24.01.2023 20:54 1,4 C 1,1 C -2,2 C 87 % 1038,3 hPa 0,0 l/m 0 min 0 min 0 W/m 3,2 km/h (1 Bft) 95,74 %
24.01.2023 20:56 1,4 C 1,1 C -2,2 C 87 % 1038,4 hPa 0,0 l/m 0 min 0 min 0 W/m 6,4 km/h (2 Bft) 95,74 %
24.01.2023 20:58 1,4 C 1,1 C -2,2 C 87 % 1038,4 hPa 0,0 l/m 0 min 0 min 0 W/m 6,4 km/h (2 Bft) 97,87 %
24.01.2023 21:00 1,4 C 1,1 C -2,2 C 87 % 1038,4 hPa 0,0 l/m 0 min 0 min 0 W/m 6,4 km/h (2 Bft) 94,29 %
24.01.2023 21:02 1,4 C 1,1 C -2,2 C 87 % 1038,4 hPa 0,0 l/m 0 min 0 min 0 W/m 3,2 km/h (1 Bft) 93,48 %
24.01.2023 21:04 1,4 C 1,1 C -2,2 C 87 % 1038,4 hPa 0,0 l/m 0 min 0 min 0 W/m 6,4 km/h (2 Bft) 97,87 %
24.01.2023 21:06 1,4 C 1,1 C -2,2 C 87 % 1038,4 hPa 0,0 l/m 0 min 0 min 0 W/m 6,4 km/h (2 Bft) 98,31 %
24.01.2023 21:08 1,4 C 1,1 C -2,2 C 87 % 1038,4 hPa 0,0 l/m 0 min 0 min 0 W/m 9,7 km/h (2 Bft) 94,29 %
24.01.2023 21:10 1,4 C 1,1 C -2,2 C 87 % 1038,4 hPa 0,0 l/m 0 min 0 min 0 W/m 6,4 km/h (2 Bft) 80,85 %
24.01.2023 21:12 1,4 C 1,1 C -2,2 C 87 % 1038,4 hPa 0,0 l/m 0 min 0 min 0 W/m 6,4 km/h (2 Bft) 74,47 %
24.01.2023 21:14 1,4 C 1,1 C -2,2 C 87 % 1038,4 hPa 0,0 l/m 0 min 0 min 0 W/m 0,0 km/h (0 Bft) 57,45 %
24.01.2023 21:16 1,4 C 1,1 C -2,2 C 87 % 1038,4 hPa 0,0 l/m 0 min 0 min 0 W/m 3,2 km/h (1 Bft) 86,96 %
24.01.2023 21:18 1,4 C 1,1 C -2,2 C 87 % 1038,4 hPa 0,0 l/m 0 min 0 min 0 W/m 6,4 km/h (2 Bft) 95,74 %
24.01.2023 21:20 1,3 C 1,1 C -2,2 C 87 % 1038,4 hPa 0,0 l/m 0 min 0 min 0 W/m 3,2 km/h (1 Bft) 93,62 %
24.01.2023 21:22 1,3 C 1,1 C -2,2 C 87 % 1038,4 hPa 0,0 l/m 0 min 0 min 0 W/m 6,4 km/h (2 Bft) 92,73 %
24.01.2023 21:24 1,3 C 1,1 C -2,2 C 87 % 1038,4 hPa 0,0 l/m 0 min 0 min 0 W/m 0,0 km/h (0 Bft) 93,48 %
24.01.2023 21:26 1,3 C 1,1 C -2,2 C 87 % 1038,5 hPa 0,0 l/m 0 min 0 min 0 W/m 6,4 km/h (2 Bft) 95,74 %
24.01.2023 21:28 1,3 C 1,1 C -2,2 C 87 % 1038,5 hPa 0,0 l/m 0 min 0 min 0 W/m 6,4 km/h (2 Bft) 93,62 %
24.01.2023 21:30 1,3 C 1,1 C -2,2 C 87 % 1038,4 hPa 0,0 l/m 0 min 0 min 0 W/m 3,2 km/h (1 Bft) 95,74 %
24.01.2023 21:32 1,3 C 1,1 C -2,2 C 87 % 1038,4 hPa 0,0 l/m 0 min 0 min 0 W/m 6,4 km/h (2 Bft) 93,62 %
24.01.2023 21:34 1,3 C 0,6 C -2,2 C 87 % 1038,5 hPa 0,0 l/m 0 min 0 min 0 W/m 6,4 km/h (2 Bft) 95,74 %
24.01.2023 21:36 1,3 C 0,6 C -2,2 C 87 % 1038,5 hPa 0,0 l/m 0 min 0 min 0 W/m 3,2 km/h (1 Bft) 95,74 %
24.01.2023 21:38 1,3 C 0,6 C -2,2 C 87 % 1038,5 hPa 0,0 l/m 0 min 0 min 0 W/m 3,2 km/h (1 Bft) 95,65 %
24.01.2023 21:40 1,3 C 0,6 C -2,2 C 87 % 1038,5 hPa 0,0 l/m 0 min 0 min 0 W/m 3,2 km/h (1 Bft) 95,74 %
24.01.2023 21:42 1,3 C 1,1 C -2,2 C 87 % 1038,5 hPa 0,0 l/m 0 min 0 min 0 W/m 3,2 km/h (1 Bft) 93,62 %
24.01.2023 21:44 1,3 C 1,1 C -2,2 C 87 % 1038,4 hPa 0,0 l/m 0 min 0 min 0 W/m 3,2 km/h (1 Bft) 93,62 %
24.01.2023 21:46 1,3 C 1,1 C -2,2 C 87 % 1038,4 hPa 0,0 l/m 0 min 0 min 0 W/m 6,4 km/h (2 Bft) 93,62 %
24.01.2023 21:48 1,3 C 1,1 C -2,2 C 87 % 1038,5 hPa 0,0 l/m 0 min 0 min 0 W/m 6,4 km/h (2 Bft) 93,62 %
24.01.2023 21:50 1,3 C 1,1 C -2,2 C 87 % 1038,4 hPa 0,0 l/m 0 min 0 min 0 W/m 3,2 km/h (1 Bft) 91,30 %
24.01.2023 21:52 1,3 C 1,1 C -2,2 C 87 % 1038,5 hPa 0,0 l/m 0 min 0 min 0 W/m 0,0 km/h (0 Bft) 97,87 %
24.01.2023 21:54 1,3 C 1,1 C -2,2 C 87 % 1038,4 hPa 0,0 l/m 0 min 0 min 0 W/m 0,0 km/h (0 Bft) 97,87 %
24.01.2023 21:56 1,2 C 1,1 C -2,2 C 87 % 1038,4 hPa 0,0 l/m 0 min 0 min 0 W/m 0,0 km/h (0 Bft) 93,62 %
24.01.2023 21:58 1,2 C 1,1 C -2,2 C 87 % 1038,5 hPa 0,0 l/m 0 min 0 min 0 W/m 0,0 km/h (0 Bft) 95,74 %
24.01.2023 22:00 1,2 C 0,6 C -2,2 C 87 % 1038,5 hPa 0,0 l/m 0 min 0 min 0 W/m 0,0 km/h (0 Bft) 93,62 %
24.01.2023 22:02 1,2 C 0,6 C -2,2 C 87 % 1038,5 hPa 0,0 l/m 0 min 0 min 0 W/m 0,0 km/h (0 Bft) 95,74 %
24.01.2023 22:04 1,2 C 0,6 C -2,2 C 87 % 1038,5 hPa 0,0 l/m 0 min 0 min 0 W/m 0,0 km/h (0 Bft) 97,83 %
24.01.2023 22:06 1,2 C 1,1 C -2,2 C 87 % 1038,4 hPa 0,0 l/m 0 min 0 min 0 W/m 0,0 km/h (0 Bft) 93,62 %
24.01.2023 22:08 1,2 C 1,1 C -2,2 C 87 % 1038,5 hPa 0,0 l/m 0 min 0 min 0 W/m 0,0 km/h (0 Bft) 97,92 %
24.01.2023 22:10 1,2 C 1,1 C -2,2 C 87 % 1038,5 hPa 0,0 l/m 0 min 0 min 0 W/m 0,0 km/h (0 Bft) 97,87 %
24.01.2023 22:12 1,2 C 1,1 C -2,2 C 87 % 1038,5 hPa 0,0 l/m 0 min 0 min 0 W/m 0,0 km/h (0 Bft) 95,74 %
24.01.2023 22:14 1,2 C 0,6 C -2,2 C 87 % 1038,5 hPa 0,0 l/m 0 min 0 min 0 W/m 0,0 km/h (0 Bft) 95,74 %
24.01.2023 22:16 1,2 C 0,6 C -2,2 C 87 % 1038,6 hPa 0,0 l/m 0 min 0 min 0 W/m 0,0 km/h (0 Bft) 95,65 %
24.01.2023 22:18 1,2 C 0,6 C -2,2 C 87 % 1038,6 hPa 0,0 l/m 0 min 0 min 0 W/m 0,0 km/h (0 Bft) 95,74 %
24.01.2023 22:20 1,2 C 0,6 C -2,2 C 87 % 1038,6 hPa 0,0 l/m 0 min 0 min 0 W/m 0,0 km/h (0 Bft) 97,87 %
24.01.2023 22:22 1,2 C 0,6 C -2,2 C 87 % 1038,5 hPa 0,0 l/m 0 min 0 min 0 W/m 0,0 km/h (0 Bft) 97,87 %
24.01.2023 22:24 1,2 C 0,6 C -2,2 C 87 % 1038,5 hPa 0,0 l/m 0 min 0 min 0 W/m 0,0 km/h (0 Bft) 95,74 %
24.01.2023 22:26 1,2 C 0,6 C -2,2 C 87 % 1038,5 hPa 0,0 l/m 0 min 0 min 0 W/m 0,0 km/h (0 Bft) 97,87 %
24.01.2023 22:28 1,2 C 0,6 C -2,2 C 87 % 1038,5 hPa 0,0 l/m 0 min 0 min 0 W/m 0,0 km/h (0 Bft) 97,87 %
24.01.2023 22:30 1,2 C 0,6 C -2,2 C 87 % 1038,5 hPa 0,0 l/m 0 min 0 min 0 W/m 0,0 km/h (0 Bft) 95,65 %
24.01.2023 22:32 1,2 C 0,6 C -2,2 C 87 % 1038,5 hPa 0,0 l/m 0 min 0 min 0 W/m 0,0 km/h (0 Bft) 100,00 %
24.01.2023 22:34 1,2 C 0,6 C -2,2 C 87 % 1038,5 hPa 0,0 l/m 0 min 0 min 0 W/m 0,0 km/h (0 Bft) 100,00 %
24.01.2023 22:36 1,2 C 0,6 C -2,2 C 87 % 1038,5 hPa 0,0 l/m 0 min 0 min 0 W/m 0,0 km/h (0 Bft) 100,00 %
24.01.2023 22:38 1,1 C 0,6 C -2,2 C 87 % 1038,5 hPa 0,0 l/m 0 min 0 min 0 W/m 0,0 km/h (0 Bft) 95,74 %
24.01.2023 22:40 1,1 C 0,6 C -2,2 C 87 % 1038,5 hPa 0,0 l/m 0 min 0 min 0 W/m 0,0 km/h (0 Bft) 100,00 %
24.01.2023 22:42 1,1 C 0,6 C -2,2 C 87 % 1038,5 hPa 0,0 l/m 0 min 0 min 0 W/m 0,0 km/h (0 Bft) 100,00 %
24.01.2023 22:44 1,1 C 0,6 C -2,2 C 87 % 1038,5 hPa 0,0 l/m 0 min 0 min 0 W/m 0,0 km/h (0 Bft) 100,00 %
24.01.2023 22:46 1,1 C 0,6 C -2,2 C 87 % 1038,4 hPa 0,0 l/m 0 min 0 min 0 W/m 0,0 km/h (0 Bft) 45,95 %
24.01.2023 22:48 1,1 C 0,6 C -2,2 C 87 % 1038,4 hPa 0,0 l/m 0 min 0 min 0 W/m 0,0 km/h (0 Bft) 100,00 %
24.01.2023 22:50 1,1 C 0,6 C -2,2 C 87 % 1038,4 hPa 0,0 l/m 0 min 0 min 0 W/m 0,0 km/h (0 Bft) 100,00 %
24.01.2023 22:52 1,1 C 0,6 C -2,2 C 87 % 1038,3 hPa 0,0 l/m 0 min 0 min 0 W/m 0,0 km/h (0 Bft) 100,00 %
24.01.2023 22:54 1,1 C 0,6 C -2,2 C 87 % 1038,4 hPa 0,0 l/m 0 min 0 min 0 W/m 0,0 km/h (0 Bft) 97,87 %
24.01.2023 22:56 1,1 C 0,6 C -2,2 C 87 % 1038,4 hPa 0,0 l/m 0 min 0 min 0 W/m 0,0 km/h (0 Bft) 100,00 %
24.01.2023 22:58 1,1 C 0,6 C -2,2 C 87 % 1038,4 hPa 0,0 l/m 0 min 0 min 0 W/m 0,0 km/h (0 Bft) 100,00 %
24.01.2023 23:00 1,1 C 0,6 C -2,2 C 87 % 1038,3 hPa 0,0 l/m 0 min 0 min 0 W/m 0,0 km/h (0 Bft) 97,87 %
24.01.2023 23:02 1,1 C 0,6 C -2,2 C 87 % 1038,4 hPa 0,0 l/m 0 min 0 min 0 W/m 0,0 km/h (0 Bft) 97,87 %
24.01.2023 23:04 1,0 C 0,6 C -2,8 C 87 % 1038,4 hPa 0,0 l/m 0 min 0 min 0 W/m 0,0 km/h (0 Bft) 95,74 %
24.01.2023 23:06 1,0 C 0,6 C -2,8 C 87 % 1038,4 hPa 0,0 l/m 0 min 0 min 0 W/m 0,0 km/h (0 Bft) 95,74 %
24.01.2023 23:08 1,0 C 0,6 C -2,8 C 87 % 1038,4 hPa 0,0 l/m 0 min 0 min 0 W/m 3,2 km/h (1 Bft) 97,87 %
24.01.2023 23:10 1,0 C 0,6 C -2,2 C 87 % 1038,3 hPa 0,0 l/m 0 min 0 min 0 W/m 0,0 km/h (0 Bft) 93,48 %
24.01.2023 23:12 1,0 C 0,6 C -2,8 C 87 % 1038,3 hPa 0,0 l/m 0 min 0 min 0 W/m 0,0 km/h (0 Bft) 97,87 %
24.01.2023 23:14 1,0 C 0,6 C -2,8 C 87 % 1038,3 hPa 0,0 l/m 0 min 0 min 0 W/m 0,0 km/h (0 Bft) 97,87 %
24.01.2023 23:16 0,9 C 0,6 C -2,8 C 87 % 1038,3 hPa 0,0 l/m 0 min 0 min 0 W/m 6,4 km/h (2 Bft) 95,74 %
24.01.2023 23:18 0,9 C 0,6 C -2,8 C 87 % 1038,2 hPa 0,0 l/m 0 min 0 min 0 W/m 6,4 km/h (2 Bft) 95,74 %
24.01.2023 23:20 0,9 C 0,6 C -2,8 C 87 % 1038,2 hPa 0,0 l/m 0 min 0 min 0 W/m 3,2 km/h (1 Bft) 97,87 %
24.01.2023 23:22 0,9 C 0,6 C -2,8 C 87 % 1038,2 hPa 0,0 l/m 0 min 0 min 0 W/m 6,4 km/h (2 Bft) 95,92 %
24.01.2023 23:24 0,9 C 0,6 C -2,8 C 87 % 1038,2 hPa 0,0 l/m 0 min 0 min 0 W/m 3,2 km/h (1 Bft) 97,87 %
24.01.2023 23:26 0,9 C 0,6 C -2,8 C 87 % 1038,2 hPa 0,0 l/m 0 min 0 min 0 W/m 3,2 km/h (1 Bft) 97,37 %
24.01.2023 23:28 0,9 C 0,6 C -2,8 C 87 % 1038,2 hPa 0,0 l/m 0 min 0 min 0 W/m 3,2 km/h (1 Bft) 95,74 %
24.01.2023 23:30 0,8 C 0,6 C -2,8 C 87 % 1038,2 hPa 0,0 l/m 0 min 0 min 0 W/m 0,0 km/h (0 Bft) 97,87 %
24.01.2023 23:32 0,8 C 0,6 C -2,8 C 87 % 1038,2 hPa 0,0 l/m 0 min 0 min 0 W/m 3,2 km/h (1 Bft) 100,00 %
24.01.2023 23:34 0,8 C 0,6 C -2,8 C 87 % 1038,2 hPa 0,0 l/m 0 min 0 min 0 W/m 3,2 km/h (1 Bft) 100,00 %
24.01.2023 23:36 0,8 C 0,6 C -2,8 C 87 % 1038,2 hPa 0,0 l/m 0 min 0 min 0 W/m 3,2 km/h (1 Bft) 100,00 %
24.01.2023 23:38 0,8 C 0,6 C -2,8 C 87 % 1038,2 hPa 0,0 l/m 0 min 0 min 0 W/m 6,4 km/h (2 Bft) 100,00 %
24.01.2023 23:40 0,8 C 0,6 C -2,8 C 87 % 1038,1 hPa 0,0 l/m 0 min 0 min 0 W/m 6,4 km/h (2 Bft) 100,00 %
24.01.2023 23:42 0,8 C 0,6 C -2,8 C 87 % 1038,2 hPa 0,0 l/m 0 min 0 min 0 W/m 6,4 km/h (2 Bft) 100,00 %
24.01.2023 23:44 0,8 C 0,6 C -2,8 C 87 % 1038,2 hPa 0,0 l/m 0 min 0 min 0 W/m 0,0 km/h (0 Bft) 100,00 %
24.01.2023 23:46 0,8 C 0,6 C -2,8 C 87 % 1038,1 hPa 0,0 l/m 0 min 0 min 0 W/m 0,0 km/h (0 Bft) 97,87 %
24.01.2023 23:48 0,8 C 0,6 C -2,8 C 87 % 1038,2 hPa 0,0 l/m 0 min 0 min 0 W/m 3,2 km/h (1 Bft) 97,87 %
24.01.2023 23:50 0,8 C 0,6 C -2,8 C 87 % 1038,1 hPa 0,0 l/m 0 min 0 min 0 W/m 3,2 km/h (1 Bft) 100,00 %
24.01.2023 23:52 0,8 C 0,6 C -2,8 C 87 % 1038,2 hPa 0,0 l/m 0 min 0 min 0 W/m 0,0 km/h (0 Bft) 100,00 %
24.01.2023 23:54 0,8 C 0,6 C -2,8 C 88 % 1038,2 hPa 0,0 l/m 0 min 0 min 0 W/m 0,0 km/h (0 Bft) 97,87 %
24.01.2023 23:56 0,8 C 0,6 C -2,8 C 88 % 1038,2 hPa 0,0 l/m 0 min 0 min 0 W/m 3,2 km/h (1 Bft) 97,87 %
24.01.2023 23:58 0,8 C 0,6 C -2,8 C 88 % 1038,1 hPa 0,0 l/m 0 min 0 min 0 W/m 6,4 km/h (2 Bft) 95,74 %
_ Min-Zeit 23:30 21:34 23:04 13:50 04:08 - - - - 04:56 19:28
Minimum _ 0,8 C 0,6 C -2,8 C 84 % 1037,3 hPa - - - - 0,0 km/h (0 Bft) 44,68 %
_ Max-Zeit 13:38 12:34 12:36 03:00 10:40 00:00 00:00 00:00 13:56 01:35 00:30
Maximum _ 3,2 C 3,3 C 0,0 C 90 % 1039,2 hPa 0,0 l/m 0 min 0 min 112 W/m 19,3 km/h
W-NW (3 Bft)
100,00 %
Durchschnitt _ 2,2 C 1,9 C -1,2 C 87 % 1038,2 hPa #0,0 l/m #0 min. #0 min. 57 W/m 8,1 km/h (2 Bft) 94,80 %
© 2023 W. Hausmann